GFSSGP_sfc_dewp_102.txt.gz
Dewpoint
68 64 68 67 52 53 47 47 46 46 42 36 40 43 48 56 51 41 66 66 68 71 72 73 74 73 72 73 73 72 72 72 72 71 71 70 69 69 69 68 68 69 69 71 70 69 69 70 70
67 64 64 61 50 44 42 50 48 48 45 39 48 51 53 57 62 63 64 66 70 71 72 72 74 72 72 72 72 71 71 71 70 69 69 68 67 67 67 67 67 69 70 71 70 70 69 70 69
64 64 60 55 51 45 42 45 45 46 41 40 39 49 55 58 61 64 63 66 70 71 72 72 73 71 70 70 70 70 70 69 69 67 67 67 67 67 67 67 67 69 71 71 71 70 70 67 69
58 60 58 53 50 50 45 43 48 49 47 49 43 47 54 60 61 62 62 67 69 70 71 73 72 69 69 68 68 67 68 67 67 67 67 67 68 68 68 68 69 68 70 70 70 70 68 66 70
56 59 52 51 51 51 50 49 47 50 52 51 47 47 54 60 61 62 62 64 68 69 71 71 71 69 67 67 67 67 67 67 67 68 69 70 69 68 68 68 68 68 69 68 68 67 66 63 65
49 54 50 48 48 49 49 48 51 54 53 53 53 50 54 59 62 62 63 62 67 69 69 68 69 68 67 67 67 67 68 68 69 70 69 69 69 68 67 66 67 67 67 67 66 65 62 60 63
47 50 48 48 49 49 49 54 50 54 55 56 57 51 54 57 59 63 63 64 67 68 67 66 65 66 70 69 70 70 70 71 71 70 69 68 67 67 66 66 65 64 63 62 61 60 57 56 60
50 49 46 47 47 48 49 55 57 56 55 59 57 52 53 58 60 64 65 65 66 66 66 65 65 66 66 68 71 71 71 71 70 69 68 67 67 66 65 63 62 61 58 56 54 56 55 58 58
49 44 44 45 47 48 50 47 56 57 54 56 57 55 55 57 61 64 64 64 65 65 65 66 66 66 67 69 70 71 71 70 69 68 67 64 60 59 58 60 58 55 54 54 54 53 53 56 56
41 43 44 47 46 46 41 38 53 54 52 54 55 56 56 57 58 62 62 62 63 64 64 65 65 66 67 69 69 68 67 66 65 64 59 57 57 56 56 57 56 53 52 53 51 52 50 43 37
33 39 42 42 42 42 37 35 43 53 52 54 55 55 59 61 56 59 60 61 60 62 64 65 65 66 67 69 69 67 65 63 63 59 57 56 57 55 51 49 48 46 47 37 38 35 34 31 34
25 26 27 39 41 40 37 32 44 54 53 57 59 57 60 60 59 57 58 58 58 60 62 64 64 66 68 68 68 66 64 61 61 58 56 56 51 49 47 44 43 41 40 36 35 33 31 30 29
25 25 26 28 29 29 27 30 30 49 54 58 59 58 58 59 62 62 59 56 57 58 60 62 63 66 67 67 67 66 63 58 56 55 54 53 48 45 46 42 40 38 36 36 34 33 33 30 30
26 30 29 29 28 27 26 29 33 37 53 56 57 58 59 60 61 62 60 54 55 56 58 60 62 65 66 66 66 64 54 49 50 52 51 50 45 43 40 38 37 37 37 35 34 35 35 34 31
31 30 29 28 26 25 27 23 26 31 51 51 54 55 59 59 61 59 60 55 54 55 56 58 62 64 65 64 61 53 48 43 43 41 38 40 40 38 38 38 37 35 34 34 36 37 37 37 36
30 30 26 27 26 25 24 20 24 24 26 44 51 56 58 59 59 58 58 56 56 55 56 59 62 65 64 60 56 47 44 41 39 37 37 38 39 38 38 38 37 38 38 38 38 39 40 39 37
30 25 26 27 29 26 23 23 24 24 25 27 32 50 54 56 57 58 60 59 60 58 58 60 63 64 61 59 56 53 49 42 41 37 37 37 38 39 39 39 38 39 40 38 37 38 39 38 37
30 30 30 30 29 29 27 25 24 24 23 26 27 36 49 54 56 58 60 60 61 60 62 62 63 60 60 58 56 57 57 56 43 38 37 37 40 40 40 39 39 39 40 38 38 38 39 38 38
32 32 31 32 33 30 28 26 23 24 22 22 25 29 41 48 54 58 60 60 61 61 63 62 61 60 58 57 55 54 54 56 49 40 37 37 39 39 40 40 39 40 39 38 38 39 37 39 39
34 32 31 31 31 30 29 26 24 22 22 21 22 31 37 46 52 59 60 60 60 61 63 62 61 59 58 57 58 58 57 57 46 43 38 39 38 40 41 39 39 40 41 40 39 39 40 41 40
34 33 33 32 34 30 27 26 25 22 22 21 23 29 35 42 57 59 59 59 60 62 63 63 60 59 59 59 59 58 55 53 51 44 42 39 37 40 40 40 40 40 40 41 40 41 40 39 41
33 35 35 35 35 29 26 24 25 22 21 23 34 38 47 56 59 59 59 59 60 62 64 62 60 60 60 60 60 58 57 53 52 47 43 39 37 38 40 40 40 40 41 40 41 42 42 41 40
34 38 38 36 34 34 32 28 24 27 28 37 38 41 44 55 59 59 59 60 61 63 64 62 61 61 60 60 59 58 56 52 51 51 49 43 38 38 38 39 39 39 41 41 41 41 41 41 40
37 39 38 36 34 28 33 28 24 36 39 41 43 44 44 51 55 59 60 60 61 63 63 62 61 61 60 60 58 57 54 52 51 50 49 45 40 40 39 38 39 39 41 40 40 40 40 40 39
38 37 30 24 28 28 35 32 28 39 42 44 45 46 49 50 53 57 58 59 61 63 63 62 61 61 60 59 57 56 54 51 51 51 49 44 40 40 39 40 42 41 41 40 40 39 37 37 36
37 38 32 22 27 29 36 31 36 39 43 46 45 48 50 52 54 56 59 59 60 63 63 63 62 61 61 58 57 56 55 54 52 50 47 43 41 41 40 42 41 40 39 38 37 37 36 33 33
34 36 39 33 34 29 33 35 38 42 43 46 47 47 48 51 53 54 56 58 61 62 62 61 61 61 59 56 56 54 52 48 47 46 46 44 42 39 38 38 37 35 34 33 33 32 31 30 30
37 40 35 36 28 20 27 25 29 40 42 45 47 48 48 49 51 53 54 54 54 55 56 58 58 57 54 50 44 43 43 42 42 41 40 38 36 35 34 34 33 32 31 30 31 31 30 29 29
26 28 38 36 36 30 23 23 30 32 35 35 44 49 47 44 45 41 39 42 42 42 40 40 45 42 43 43 39 38 37 36 35 35 35 35 35 34 33 32 31 30 29 27 27 27 27 26 27
21 22 34 31 31 34 31 27 30 32 33 35 36 37 39 39 39 37 36 35 35 36 39 39 40 39 38 36 35 34 34 33 33 32 32 32 31 30 30 30 28 27 27 27 27 27 27 27 27

GFSSGP_sfc_dewp_105.txt.gz
Dewpoint
68 65 69 65 52 51 45 45 46 44 44 37 43 41 39 49 43 38 65 67 68 71 70 73 74 73 73 73 73 73 73 72 72 72 71 69 69 69 68 68 68 69 70 69 69 70 70 70 69
67 64 64 60 48 42 40 49 48 46 47 51 46 49 50 55 62 65 65 67 69 71 72 71 73 74 73 73 72 72 72 72 71 70 68 68 67 67 66 67 68 70 70 69 70 69 69 70 68
61 64 59 55 50 43 39 44 45 48 46 43 42 52 55 58 63 65 65 68 70 71 72 71 74 73 73 72 72 71 71 69 68 68 67 67 67 66 67 68 69 70 70 70 69 67 70 68 67
59 59 58 53 49 50 44 43 49 47 48 51 46 47 55 60 64 64 67 69 70 71 71 73 73 71 72 71 70 69 69 69 67 67 67 67 67 67 67 68 70 70 70 69 68 67 69 67 66
56 58 51 51 51 52 51 51 48 47 50 51 48 51 55 59 62 65 68 70 70 70 71 70 71 69 69 69 68 68 68 67 67 67 67 69 67 68 70 69 67 69 69 68 67 65 67 66 65
49 54 50 48 49 50 49 49 51 53 54 54 51 52 55 61 62 63 68 69 70 70 70 69 70 69 68 67 67 67 67 67 68 69 70 69 68 68 68 67 68 67 67 66 65 62 65 65 62
46 50 47 47 49 49 49 54 49 52 54 53 56 50 55 61 62 62 63 68 69 69 68 68 66 67 69 68 67 67 68 68 70 69 68 69 67 67 67 66 66 66 64 64 61 59 63 62 59
47 48 45 46 47 48 50 54 56 56 55 59 59 51 54 57 63 63 64 67 68 67 66 64 64 65 66 66 70 70 70 70 70 69 68 67 67 67 65 64 62 59 56 56 56 58 60 59 57
50 45 43 45 47 48 48 44 55 57 55 56 57 55 56 62 64 64 65 66 66 65 64 64 65 66 67 68 70 70 71 70 69 68 68 65 60 60 58 61 59 57 55 54 55 57 58 57 57
40 43 43 46 46 46 44 40 38 50 51 52 55 57 59 63 63 63 63 63 64 64 64 65 65 66 67 70 69 68 69 67 65 63 60 58 57 57 56 58 59 54 53 54 55 55 57 49 45
34 38 42 41 39 40 40 36 36 50 51 52 52 55 58 62 62 62 63 63 63 64 64 65 65 66 68 69 67 66 65 64 62 58 57 56 57 54 50 48 45 44 46 38 40 36 35 37 40
25 26 28 30 34 37 35 33 30 51 48 53 56 57 57 60 61 62 62 62 62 63 64 65 65 66 68 69 67 65 63 62 60 57 56 56 52 49 46 45 42 40 37 33 33 32 31 33 37
25 26 30 30 31 29 28 28 28 30 48 54 59 58 58 58 60 61 62 61 61 62 63 64 65 66 68 68 66 64 62 62 60 56 56 52 47 46 43 40 40 37 36 34 33 32 31 30 32
28 29 31 30 28 29 26 26 30 31 41 55 58 58 57 59 59 60 61 60 58 60 61 63 64 66 67 67 66 64 62 60 58 55 54 47 44 43 41 38 37 36 36 35 35 34 33 32 31
32 30 30 29 27 25 28 23 23 27 35 50 55 57 58 58 60 59 60 60 58 58 60 61 63 66 67 67 66 63 60 55 56 54 52 47 43 42 38 37 37 36 35 35 37 37 37 35 34
31 29 28 29 28 28 25 23 24 25 23 23 43 53 58 59 60 59 60 59 58 58 58 60 62 65 66 65 65 60 53 49 52 49 48 46 42 38 38 38 36 36 37 39 39 40 39 37 36
31 28 29 30 30 31 26 26 26 27 23 23 25 40 55 58 60 60 60 61 59 58 58 59 61 65 65 65 61 55 48 44 45 44 42 41 40 39 39 38 38 39 39 38 38 38 39 37 37
30 30 31 31 32 31 31 29 27 27 25 22 22 26 48 57 58 60 60 61 60 59 60 62 63 65 65 61 56 54 51 49 40 37 38 38 40 39 39 39 39 40 39 38 38 37 39 38 38
33 33 32 33 33 33 31 30 28 28 24 23 22 22 29 47 56 59 59 61 61 61 62 62 64 65 62 58 54 53 51 53 50 40 37 37 39 39 39 39 39 40 38 37 37 38 37 39 39
34 33 32 33 33 32 32 31 29 26 24 24 22 21 25 33 45 56 59 60 60 60 62 63 64 63 61 59 58 56 54 57 54 44 38 39 39 40 39 39 39 39 39 38 39 39 40 41 39
34 33 33 33 35 34 31 30 29 26 24 22 22 28 37 34 40 58 59 59 60 60 62 62 63 62 59 58 58 57 56 56 55 48 39 39 38 40 40 39 40 40 41 40 39 39 39 39 41
33 35 35 37 36 35 35 29 31 28 26 28 39 40 43 45 51 58 59 59 60 61 62 62 62 60 58 58 57 55 54 53 56 55 50 46 38 40 40 39 39 40 41 40 40 41 40 41 39
33 37 38 38 36 36 34 33 29 29 38 41 43 44 45 45 56 58 58 59 60 63 63 61 61 61 60 59 59 58 58 55 54 53 49 44 38 38 40 40 39 39 41 40 41 42 41 41 40
36 39 37 35 33 27 35 34 26 37 40 42 45 46 47 47 57 58 59 59 60 63 63 61 60 61 61 61 60 60 56 54 52 52 52 52 46 39 39 39 39 40 41 40 41 40 41 40 39
38 36 29 22 24 27 36 33 30 37 41 44 45 46 50 52 54 59 58 59 60 61 62 62 61 60 60 60 59 58 56 55 53 52 51 51 49 42 39 39 40 40 41 41 40 39 38 38 37
36 36 33 22 25 28 35 32 36 40 44 47 47 49 52 53 56 57 59 59 59 62 61 61 61 61 60 58 58 58 57 54 54 53 51 50 47 42 40 42 41 40 40 39 38 38 36 34 34
32 34 37 33 34 27 32 34 39 40 43 47 48 47 48 52 54 55 57 59 60 62 61 62 62 61 59 59 59 57 55 55 55 52 46 46 43 40 42 40 39 37 36 35 34 33 31 30 30
36 38 33 33 26 24 27 25 29 32 39 41 48 46 46 47 49 50 52 54 55 58 60 60 59 58 57 57 57 55 53 52 47 44 44 42 37 37 37 35 33 33 32 32 32 31 30 29 29
23 23 36 34 35 29 24 24 30 32 34 36 43 45 45 43 41 43 42 45 45 46 52 53 54 52 46 42 40 38 38 37 37 37 36 35 35 34 33 33 32 31 29 28 27 27 27 27 27
24 20 32 28 25 33 32 26 31 32 34 37 38 43 43 43 39 36 35 37 39 41 43 42 40 38 36 36 35 34 34 33 33 33 32 32 32 32 31 30 29 28 28 27 27 27 27 27 27

GFSSGP_sfc_dewp_108.txt.gz
Dewpoint
68 65 69 64 47 50 43 43 46 44 45 44 44 40 39 47 43 36 64 67 67 67 70 72 75 74 73 73 73 73 73 72 72 72 71 69 68 68 68 67 70 69 68 70 69 70 69 69 68
65 64 63 59 46 39 39 47 46 46 47 48 45 48 51 54 62 63 66 67 68 69 69 72 74 74 73 73 73 73 72 72 72 70 67 68 67 67 67 68 70 70 69 70 69 70 68 67 66
59 64 58 54 48 41 38 41 45 48 48 47 44 52 56 58 64 63 65 68 69 69 71 71 74 73 73 73 73 72 72 71 70 68 67 67 66 66 67 69 70 70 69 67 69 69 68 67 66
60 59 57 52 48 49 42 41 47 49 48 51 47 47 56 60 64 65 68 69 70 71 71 73 74 74 73 72 72 72 69 68 68 67 67 67 66 67 68 70 70 70 68 67 70 68 67 66 65
57 58 50 50 50 52 51 51 51 49 49 52 52 48 56 60 64 67 68 70 70 70 71 71 73 73 72 71 69 70 69 68 67 67 67 67 67 67 67 69 70 69 68 67 69 68 66 65 64
51 54 49 46 48 50 50 50 50 52 54 53 50 53 55 62 66 68 69 70 70 70 70 70 72 71 71 70 69 68 67 67 67 68 69 68 69 69 69 69 68 67 67 65 66 67 64 62 60
49 49 46 46 48 49 50 54 50 52 53 53 56 51 55 60 64 68 68 69 70 70 69 67 67 68 70 69 68 67 67 67 68 70 69 69 68 68 68 67 67 66 65 63 65 66 62 60 58
48 48 43 45 47 47 49 52 56 55 53 59 59 52 54 59 62 65 68 68 67 67 67 65 65 65 65 65 69 68 68 70 70 70 69 68 67 67 66 65 63 62 61 59 62 62 59 59 59
50 44 41 44 46 47 45 42 51 56 54 55 57 55 57 62 62 65 66 67 66 65 64 64 64 65 65 66 67 69 70 70 70 70 69 66 62 62 60 62 61 57 58 59 60 59 58 60 61
40 42 42 46 46 45 44 41 37 41 43 51 55 57 62 62 62 63 63 62 65 65 64 64 64 65 66 68 68 68 69 67 66 64 61 59 58 57 57 61 61 56 56 57 59 58 58 52 48
35 36 42 36 36 36 37 34 37 44 45 49 50 56 61 62 62 62 63 63 63 64 64 64 65 65 67 68 67 67 66 64 63 60 58 57 57 53 50 46 45 46 53 44 43 40 39 40 44
25 27 27 30 33 31 30 30 31 42 41 44 52 56 61 61 62 62 62 62 63 64 64 64 65 66 67 68 67 66 64 62 60 58 56 56 52 48 45 42 38 36 35 32 34 35 36 38 40
26 25 27 30 32 32 29 28 27 28 38 45 54 57 59 61 62 63 63 64 64 64 64 64 65 66 68 68 65 64 63 62 58 56 56 53 49 46 42 40 38 35 34 32 32 31 33 35 37
29 29 31 32 30 29 28 27 29 29 29 35 52 57 57 61 62 63 63 63 63 63 64 64 65 66 68 68 65 64 62 60 57 56 55 49 47 43 40 39 36 36 34 34 33 31 32 32 33
34 31 31 30 28 28 28 25 23 26 25 34 48 56 57 58 61 61 62 61 62 63 64 64 64 66 68 67 66 63 62 60 57 55 52 45 44 41 39 37 36 36 35 35 36 35 34 33 33
31 30 30 32 32 30 27 28 28 26 24 23 23 40 57 58 59 61 62 61 60 61 62 63 63 65 67 67 66 62 61 58 57 55 52 44 43 39 38 38 37 36 37 39 38 38 37 36 35
32 30 30 31 30 32 27 29 29 29 29 24 23 23 43 58 60 60 61 62 60 60 60 62 62 65 66 66 65 60 55 54 55 53 51 45 43 39 38 38 37 37 39 39 39 39 38 37 36
30 30 32 31 33 32 32 32 32 32 30 26 24 22 23 50 59 60 60 62 61 60 61 61 62 64 66 64 58 54 51 49 47 50 50 45 42 39 39 38 38 39 39 38 38 38 39 38 38
32 33 32 33 34 33 32 32 32 32 31 27 25 24 23 26 54 59 61 62 62 61 61 61 62 64 63 59 57 55 54 51 47 44 46 47 40 39 39 39 39 40 38 38 37 38 38 39 38
35 33 33 34 35 33 34 34 34 33 31 27 26 24 22 25 28 53 60 61 60 60 61 61 63 65 65 64 61 56 55 55 53 52 41 39 39 39 39 38 39 39 39 37 38 39 39 41 39
33 33 33 33 37 36 36 32 31 31 27 25 33 39 41 41 43 41 58 60 60 59 61 62 63 64 65 62 59 58 57 56 53 49 41 42 39 40 39 38 39 39 40 39 39 39 39 39 41
31 34 36 37 35 32 37 28 32 33 30 39 42 44 45 45 46 47 56 59 60 60 61 62 62 63 62 59 58 56 56 52 56 54 52 52 49 40 40 39 39 39 41 39 40 40 40 40 39
31 35 38 37 35 30 34 31 28 36 36 39 41 45 46 48 47 51 57 59 60 60 61 62 63 62 59 59 58 56 56 56 56 53 52 52 51 46 40 39 39 39 41 40 40 41 41 41 40
36 38 34 33 31 26 35 31 28 36 39 40 43 45 48 51 52 55 57 59 59 61 62 62 61 60 60 59 59 57 57 56 54 53 52 51 50 47 40 40 39 39 40 40 41 41 41 40 40
38 34 26 23 23 22 35 34 35 39 43 46 46 48 50 52 55 56 56 57 59 61 62 61 60 60 59 60 59 59 57 57 55 54 53 51 50 44 39 39 40 40 41 41 41 40 39 38 38
36 34 29 25 25 27 32 30 35 39 40 47 48 48 51 53 55 56 58 59 59 61 61 61 61 60 60 60 58 58 58 59 58 55 54 52 51 51 43 41 41 41 41 40 39 38 37 36 35
30 32 36 32 28 28 26 32 40 39 37 41 46 47 47 48 52 53 56 58 61 60 61 61 61 60 59 59 59 58 58 56 55 54 55 54 50 45 45 42 40 39 39 38 36 34 32 31 30
35 37 30 31 22 23 26 25 27 33 36 41 45 45 44 43 44 48 49 52 57 59 60 60 59 58 59 60 59 57 56 56 55 53 49 45 44 42 40 38 36 35 34 33 33 32 30 29 29
23 21 32 32 32 24 25 24 30 32 37 42 44 44 43 41 39 42 45 46 52 53 54 55 54 53 51 49 51 49 48 43 42 40 38 37 37 36 35 34 32 31 31 30 30 29 27 27 27
24 20 30 28 26 30 29 29 31 33 36 40 38 40 41 40 37 37 37 37 41 39 41 39 38 37 36 36 35 35 35 35 34 33 33 33 33 33 32 31 30 29 28 27 27 27 27 27 27

GFSSGP_sfc_dewp_111.txt.gz
Dewpoint
67 65 71 67 50 52 44 42 44 44 45 46 44 39 40 44 44 40 66 67 66 64 72 72 75 75 74 74 73 73 73 73 72 71 70 69 68 67 68 70 68 70 70 70 70 69 68 68 68
65 63 65 62 48 40 38 46 45 47 48 47 49 48 50 52 62 63 65 67 64 70 71 71 75 75 74 73 73 73 73 72 72 71 69 68 67 67 68 70 69 70 69 70 69 68 67 66 67
59 63 61 57 50 41 39 41 44 47 49 49 44 54 56 58 63 63 66 67 63 70 70 71 75 75 74 74 73 73 72 72 70 68 68 67 66 66 68 70 70 70 68 70 69 68 67 66 66
61 61 59 53 49 49 43 42 46 49 48 51 48 47 58 61 64 65 67 66 65 69 71 73 74 74 74 73 73 72 72 70 68 68 67 66 66 67 70 70 70 67 69 70 68 67 66 65 65
60 59 53 49 49 51 51 51 51 50 49 50 52 48 56 61 65 67 68 67 65 69 71 71 73 73 73 73 72 71 70 69 68 67 67 67 67 69 70 70 70 68 70 69 68 67 65 64 64
54 56 48 45 47 51 51 52 50 51 52 52 51 53 56 64 66 67 68 67 65 69 70 69 73 73 73 72 71 71 69 68 67 68 67 68 68 69 70 70 69 67 68 69 67 64 63 62 63
51 52 46 47 48 49 50 53 51 52 51 54 56 50 57 62 66 68 68 66 70 69 69 68 70 71 72 72 71 70 68 67 67 69 69 69 69 69 68 67 67 66 65 68 65 63 61 60 61
51 51 47 48 44 46 48 49 55 50 50 58 58 51 54 61 67 69 69 69 70 69 68 67 67 67 67 66 70 69 68 68 70 70 70 69 68 68 67 67 66 64 64 67 62 60 59 59 61
51 45 43 44 45 44 46 44 45 55 45 50 56 55 56 62 66 68 67 68 68 68 67 66 65 65 65 65 66 69 69 70 70 70 70 67 65 64 63 64 65 61 62 64 60 60 60 61 63
44 44 41 46 47 44 43 37 37 35 35 41 52 59 61 63 65 66 65 64 66 66 65 65 65 64 64 64 65 66 68 69 66 66 64 63 63 60 58 60 63 60 62 61 59 61 61 58 57
38 36 41 40 34 34 32 31 31 33 37 42 37 55 61 62 64 64 63 63 64 65 65 64 64 64 64 64 68 70 68 67 65 63 63 61 59 58 56 55 54 55 58 54 49 46 47 53 55
26 28 32 30 30 30 28 29 26 34 36 38 42 53 61 61 62 63 63 62 62 64 65 64 64 65 66 68 68 68 66 65 64 62 60 58 55 52 50 49 50 50 48 40 39 41 44 47 50
26 25 27 30 33 33 32 30 27 28 32 41 43 53 60 61 62 63 63 63 63 64 65 64 64 64 67 68 68 66 65 64 63 60 58 56 53 49 45 43 44 40 39 38 39 39 40 40 41
29 30 32 34 32 31 28 29 28 28 30 28 35 44 53 60 62 62 63 63 63 63 64 64 63 64 66 67 67 65 64 63 61 58 57 54 50 45 41 39 39 37 37 37 37 37 38 39 38
34 31 33 33 30 32 29 30 25 26 26 29 27 39 56 58 61 62 63 62 63 63 64 64 63 64 66 68 67 65 65 62 60 57 55 51 49 42 40 38 37 36 35 34 35 34 36 37 37
32 32 32 35 34 32 29 30 33 33 27 32 31 25 39 58 60 62 64 63 64 64 64 64 63 65 67 67 67 65 64 62 59 57 54 48 46 42 41 39 39 38 38 39 38 38 38 37 37
33 30 32 33 33 32 29 31 34 34 33 33 32 28 25 42 59 61 63 64 63 64 64 64 63 65 67 67 67 65 63 61 58 57 53 46 45 41 41 40 40 39 41 40 39 40 40 38 39
31 31 32 33 34 34 34 34 35 36 35 34 31 30 27 25 39 60 62 63 63 63 64 65 64 65 67 67 64 62 61 60 59 56 54 43 44 41 41 41 40 40 43 42 42 40 41 40 40
33 33 33 34 35 34 34 34 35 36 36 35 34 31 28 26 25 44 61 62 62 62 62 63 64 64 66 63 60 59 59 56 56 55 54 45 43 41 41 41 40 42 42 42 42 42 42 42 41
35 32 32 34 35 35 36 33 35 33 34 32 33 37 40 41 36 39 55 61 61 61 62 62 63 65 65 64 64 62 59 57 55 53 46 47 41 40 41 41 41 41 43 42 42 44 43 43 42
31 31 31 33 37 37 35 32 33 36 37 38 41 43 45 47 47 47 46 61 61 60 61 62 62 65 65 64 60 58 58 56 54 49 45 44 43 41 42 40 41 41 43 43 43 45 47 44 43
30 33 34 36 34 29 35 27 30 37 38 39 42 44 46 48 49 50 48 55 61 61 62 63 63 64 65 62 61 59 58 55 55 52 52 51 52 51 45 40 41 41 42 42 43 43 43 45 42
29 36 37 35 34 32 33 30 28 37 37 37 41 44 47 49 51 52 50 51 61 61 61 62 63 63 63 62 62 60 58 56 53 52 52 52 53 53 52 48 41 41 44 42 42 42 42 43 43
36 37 33 32 31 27 31 32 28 37 38 40 43 45 48 51 54 57 56 57 60 61 61 62 63 63 61 61 60 58 55 53 52 52 52 52 53 53 52 49 43 42 42 42 43 44 43 43 43
38 35 31 27 28 26 32 30 31 39 39 41 46 47 49 53 56 58 59 59 60 61 61 62 62 60 60 59 58 57 57 57 54 53 53 52 52 52 52 48 41 42 45 44 45 44 44 43 43
37 35 32 24 26 28 31 31 34 40 40 44 47 47 47 49 52 54 59 60 61 61 61 60 60 59 60 59 59 59 59 59 58 56 55 53 52 52 49 42 42 41 43 43 43 43 42 42 41
30 33 37 32 30 29 31 31 39 39 38 41 46 46 45 45 47 50 54 58 60 60 60 60 60 59 59 58 58 58 59 59 57 57 55 55 54 53 53 47 44 44 43 41 41 40 38 38 36
32 36 31 32 26 24 26 26 25 35 37 42 44 44 44 44 45 47 50 55 57 58 59 60 60 59 58 59 59 58 58 57 56 55 54 54 53 50 48 45 42 40 38 38 37 36 34 33 33
24 22 30 34 33 28 24 26 30 34 40 41 41 42 42 42 42 45 44 47 51 51 51 53 52 52 51 53 55 54 52 50 48 47 45 42 42 42 40 38 37 36 35 34 33 33 32 31 31
25 22 28 28 25 33 31 26 31 33 39 37 36 37 37 38 37 39 43 42 40 42 40 40 42 41 43 40 38 37 36 35 34 33 34 35 35 35 34 33 32 31 31 30 30 29 28 29 30

GFSSGP_sfc_dewp_114.txt.gz
Dewpoint
65 63 70 67 51 45 36 33 36 36 44 45 46 41 40 41 40 44 66 65 62 55 69 72 75 75 74 74 74 73 73 73 73 71 70 69 68 71 69 68 70 70 70 69 68 68 68 68 68
63 62 66 60 45 38 35 38 38 39 43 47 46 46 45 42 57 63 64 66 63 57 67 70 75 75 75 74 73 73 73 73 72 70 69 68 67 68 71 69 70 70 70 69 68 67 67 68 68
59 63 57 50 44 38 35 39 38 43 45 46 45 51 51 53 61 62 65 65 58 62 67 68 75 75 75 74 73 73 73 72 71 69 68 67 67 67 71 70 70 70 70 69 68 67 66 66 67
59 59 56 49 42 44 41 38 43 44 43 46 48 46 56 61 62 63 65 61 60 66 67 73 75 74 74 74 73 73 72 71 70 69 67 67 66 68 70 70 68 70 70 68 67 66 65 65 65
59 54 42 44 41 42 47 47 47 46 45 45 48 46 52 61 65 65 64 59 62 64 64 70 74 73 73 73 73 72 71 71 69 68 67 67 68 70 70 69 68 70 69 68 67 66 64 64 64
47 49 36 31 34 41 46 48 49 49 47 47 49 49 54 63 65 65 64 61 61 62 63 67 73 74 73 73 72 72 70 69 68 67 67 68 70 71 70 69 69 70 69 67 65 64 63 63 63
43 41 29 28 31 37 42 48 47 48 47 49 54 48 56 62 66 64 63 61 60 62 65 67 69 71 73 73 73 71 69 68 68 67 68 70 70 70 69 68 67 69 68 66 63 62 62 62 63
45 44 34 36 33 34 38 44 51 48 46 49 55 49 52 60 66 65 64 61 58 62 64 65 67 67 68 68 72 71 69 69 70 70 71 71 70 69 68 68 66 67 67 64 62 60 61 62 62
51 35 29 32 34 34 40 43 45 46 45 41 45 51 55 62 66 65 64 63 62 63 64 65 66 65 66 64 67 69 69 70 70 70 71 68 65 65 65 67 67 66 65 62 61 61 61 62 62
39 34 27 34 35 35 36 39 39 40 42 42 42 49 57 63 66 64 63 62 63 63 63 64 64 62 62 60 62 60 61 66 68 65 63 63 63 61 59 64 65 65 63 60 61 62 60 59 51
34 28 28 30 33 34 34 33 32 33 35 37 40 39 57 61 64 64 64 61 62 63 63 63 63 62 59 56 57 58 60 70 67 64 61 60 59 58 55 56 57 60 60 53 53 53 49 52 52
26 26 29 29 28 27 26 24 22 23 27 29 33 30 42 57 62 64 63 62 60 61 63 63 63 62 57 56 57 61 67 69 64 63 60 59 58 55 53 52 53 55 50 39 38 43 49 51 50
28 30 30 31 32 34 33 33 31 27 25 25 25 32 41 51 56 64 64 63 61 60 63 64 63 61 56 56 60 67 66 65 63 63 60 58 56 53 52 50 48 47 38 35 37 39 40 41 43
33 34 34 34 34 33 33 32 28 26 27 26 27 28 30 37 51 59 63 62 61 61 63 64 63 61 55 57 65 67 66 65 65 62 59 55 53 50 49 47 43 39 36 36 36 36 37 37 36
35 33 32 32 32 33 30 30 30 27 30 27 26 28 29 41 44 50 60 62 61 61 62 63 62 60 55 58 64 66 66 64 63 60 55 53 51 48 45 41 37 35 35 34 35 34 36 38 37
33 32 31 32 34 32 31 28 30 31 32 32 31 29 31 29 49 54 59 62 62 63 62 62 62 60 57 60 65 65 65 65 63 57 53 51 49 44 39 37 35 36 36 37 37 37 37 37 37
32 28 30 32 33 34 33 32 33 35 35 35 33 31 30 31 32 55 60 62 62 64 64 63 63 61 59 65 67 67 65 64 61 55 53 49 45 40 38 37 38 37 38 38 38 39 38 37 37
27 28 29 30 31 33 34 34 35 37 36 37 36 33 32 30 27 37 59 63 63 64 65 65 64 62 61 68 67 67 65 63 59 55 54 44 43 41 39 39 39 38 40 40 39 39 39 38 38
31 30 29 31 33 35 33 34 33 37 35 33 35 34 32 31 29 29 46 61 63 65 65 64 64 63 62 65 63 63 63 62 59 56 55 45 43 42 45 41 40 41 41 41 41 40 41 41 39
27 27 28 32 35 35 33 31 32 37 38 39 40 40 40 40 35 37 40 56 61 63 65 65 65 64 63 65 64 65 62 62 60 58 57 49 43 41 41 44 42 41 42 43 42 44 42 42 41
24 26 29 32 34 36 33 29 32 34 37 38 40 43 42 43 43 41 44 49 58 61 63 64 64 64 65 65 62 61 59 59 57 51 50 49 42 41 41 42 41 41 43 44 45 45 46 42 43
25 29 34 35 30 26 32 25 27 32 37 39 40 42 44 46 45 45 47 48 55 60 63 64 64 64 65 65 63 62 61 57 56 52 52 52 51 50 49 47 42 41 45 45 45 45 45 45 41
26 36 36 34 31 31 30 30 28 35 37 38 40 44 46 48 49 47 46 48 50 59 62 63 64 64 64 63 62 62 59 56 54 52 52 52 53 54 53 52 51 48 47 44 43 41 41 45 42
33 35 34 33 31 25 31 30 27 36 38 39 42 45 46 50 53 53 54 52 51 59 61 63 63 64 64 64 62 58 55 53 52 52 52 52 53 54 53 53 52 50 49 45 45 44 43 42 42
32 33 36 29 32 26 30 30 31 37 39 42 47 46 47 49 53 56 56 56 57 59 61 62 63 60 61 60 58 56 54 53 52 51 52 53 53 54 53 53 52 50 47 46 47 46 45 44 44
31 35 35 31 27 33 32 34 34 38 40 46 46 47 47 47 51 54 59 59 60 61 62 61 60 59 59 58 58 59 58 55 55 54 53 54 54 54 54 52 51 44 42 44 45 46 47 45 44
26 29 38 35 33 31 32 24 35 38 38 42 44 45 45 46 49 52 55 59 60 60 60 60 60 59 60 58 58 59 59 58 58 57 56 56 54 54 53 51 48 43 43 43 44 44 43 43 42
29 34 29 35 32 25 19 19 28 37 36 38 41 42 43 45 47 49 51 53 56 58 60 60 60 60 59 59 59 59 58 58 58 56 56 54 54 54 51 50 47 45 46 45 44 44 40 39 38
24 22 26 33 32 26 18 18 28 32 36 37 37 41 41 42 45 46 47 48 49 49 50 53 53 55 55 55 54 53 51 50 50 50 49 51 52 50 49 47 45 43 40 38 38 38 36 35 34
24 22 21 25 21 31 28 20 29 32 35 36 36 38 38 39 42 44 43 43 46 48 47 46 45 45 44 43 41 39 38 37 36 36 38 38 38 41 41 40 38 36 36 35 34 32 31 31 31

GFSSGP_sfc_dewp_120.txt.gz
Dewpoint
65 63 63 66 57 53 44 41 41 40 42 42 43 44 42 43 52 55 64 61 60 64 71 74 76 76 75 75 74 74 74 73 72 71 71 70 69 69 71 71 70 69 69 68 68 69 69 69 70
63 59 65 62 53 43 40 41 38 39 34 41 45 44 43 50 59 61 62 59 56 66 71 72 76 76 75 75 75 74 73 73 71 70 69 71 70 69 71 71 70 69 68 68 68 68 69 69 69
60 58 59 56 48 43 40 38 40 38 39 42 41 45 46 56 58 60 62 55 55 65 69 72 76 75 75 75 74 73 73 72 71 70 68 69 71 70 70 71 70 68 68 67 67 68 69 69 69
55 57 55 47 44 43 42 40 42 39 41 39 39 42 55 59 59 62 61 53 59 65 69 75 76 75 75 74 74 73 73 72 71 69 68 67 70 71 70 70 70 68 67 67 66 66 67 68 68
53 52 44 39 37 39 39 38 42 41 40 39 41 41 56 61 63 63 61 53 59 65 71 73 75 74 74 73 73 73 73 71 70 69 67 66 69 71 70 70 69 68 67 66 65 65 66 67 67
50 47 36 33 34 32 30 34 40 46 46 41 43 45 57 62 62 62 60 55 61 68 70 71 75 75 74 73 73 73 72 71 69 68 67 67 71 70 70 70 70 68 67 66 65 64 64 65 66
49 45 37 33 31 30 26 25 37 45 52 46 49 50 60 62 62 61 56 57 63 65 68 69 71 72 74 74 73 73 71 70 69 67 68 71 71 70 71 70 69 67 66 65 64 63 63 63 64
49 46 36 35 33 32 31 31 34 40 44 47 49 55 57 64 64 59 57 60 59 63 66 67 69 70 71 71 72 72 72 70 68 70 72 72 71 70 70 70 68 66 64 63 63 63 62 61 62
51 42 36 33 31 33 32 31 33 39 41 43 45 47 62 59 63 63 57 59 58 57 62 64 66 68 69 69 70 71 72 70 70 70 72 70 67 67 67 69 67 65 63 63 62 62 61 61 60
42 40 35 30 32 31 30 32 33 33 38 39 38 42 59 57 60 62 63 58 56 57 61 66 67 66 67 67 68 67 66 66 65 67 67 67 64 64 65 68 66 64 63 62 60 60 61 61 56
35 33 31 27 27 29 26 24 24 26 32 32 31 32 56 61 62 62 61 60 59 62 65 65 67 66 65 66 66 64 63 62 65 66 65 64 62 62 62 64 61 60 61 57 59 60 58 50 53
32 30 29 34 33 32 31 31 29 29 31 28 27 25 25 42 58 59 61 60 59 67 66 66 66 66 65 66 62 58 58 61 67 65 62 59 59 58 58 60 60 58 54 52 52 53 50 49 50
32 32 31 33 34 35 34 34 33 32 32 30 28 25 25 25 30 55 59 61 60 63 66 67 68 66 67 57 56 54 59 66 66 68 62 59 57 55 55 56 57 53 43 41 46 49 49 47 45
33 33 33 33 33 33 32 33 33 33 32 31 27 26 24 23 23 35 56 56 61 63 63 66 66 65 63 56 53 62 67 69 67 67 61 56 56 53 52 52 52 41 39 41 43 43 42 42 41
33 33 34 34 35 34 34 32 32 31 30 28 27 28 24 25 25 26 42 55 59 62 64 66 66 65 61 54 54 66 67 67 67 66 60 55 54 51 51 48 44 38 37 37 37 36 39 40 39
33 34 32 32 35 35 35 32 35 34 32 33 34 32 32 30 26 26 30 38 57 61 64 65 67 66 60 54 64 66 66 66 67 65 58 53 52 50 49 45 41 39 39 40 40 41 41 40 39
32 24 27 30 33 32 32 32 34 36 35 35 35 35 35 34 32 29 29 35 52 58 64 64 65 65 61 55 65 66 66 67 66 62 55 51 50 48 46 42 40 39 41 42 40 41 41 40 40
24 23 24 27 32 33 34 32 34 35 35 36 36 36 37 34 33 30 33 35 50 61 65 64 65 64 61 65 66 67 66 66 66 57 53 49 49 44 42 42 38 42 43 42 42 40 40 40 39
25 23 24 27 33 34 33 32 33 37 38 39 39 40 40 39 40 35 31 32 51 66 65 64 64 65 64 65 64 65 65 64 65 56 51 48 45 41 42 43 40 43 42 43 40 41 39 40 38
23 24 26 28 31 31 33 32 35 36 38 40 40 40 41 43 40 40 37 33 37 61 64 63 63 63 61 64 65 65 65 65 61 56 52 46 42 41 44 43 43 44 44 42 42 42 43 43 41
23 26 31 32 33 32 32 31 32 35 39 40 41 43 44 45 45 45 44 38 42 56 63 60 61 62 60 64 65 62 61 61 59 55 49 45 43 43 43 42 43 44 45 45 45 46 45 44 44
24 29 31 35 32 28 31 26 35 34 37 40 41 45 45 45 46 48 50 44 42 54 64 60 61 60 62 65 63 62 61 59 59 55 53 51 45 45 43 43 44 45 46 45 45 46 48 47 44
25 30 30 35 33 31 28 27 31 35 37 40 43 45 46 46 47 49 51 54 45 47 62 64 63 61 63 62 63 61 60 57 56 56 53 52 52 50 49 47 45 45 45 44 43 43 43 46 45
30 31 34 37 34 30 28 30 31 35 39 42 45 45 46 48 49 51 53 55 46 60 63 61 62 61 61 62 60 59 57 55 54 54 54 52 53 53 53 52 51 50 49 48 48 47 45 43 43
32 31 35 30 31 26 29 31 34 37 41 45 45 45 46 48 50 52 55 51 59 60 62 61 61 60 59 58 59 58 57 56 54 54 53 53 51 51 53 52 52 52 52 51 50 47 46 45 45
29 31 33 26 27 30 34 30 34 39 42 45 46 45 46 48 50 51 55 59 60 60 61 60 59 59 59 58 58 57 56 54 54 53 53 53 54 53 53 52 52 52 52 52 50 48 47 47 47
27 27 36 34 35 33 34 32 37 35 37 43 45 45 46 47 48 50 51 55 59 59 59 58 58 58 58 57 56 56 55 55 53 54 54 54 55 54 54 53 52 51 50 46 44 45 45 46 44
29 31 30 36 27 25 22 20 22 32 36 41 42 43 46 47 47 49 50 52 56 55 57 58 57 57 57 56 56 55 57 56 56 55 55 54 54 54 53 51 48 47 46 46 46 47 45 43 42
27 25 25 28 30 25 21 22 25 33 37 40 40 42 45 47 46 48 49 49 49 52 51 53 52 51 52 51 49 48 49 50 51 51 52 52 52 50 48 48 48 47 47 46 43 41 39 38 38
25 21 18 21 23 24 25 24 28 35 37 39 40 42 42 47 47 47 47 47 47 46 47 47 45 44 41 41 42 43 41 41 42 42 45 50 49 49 49 49 49 48 48 47 46 42 38 37 36

GFSSGP_sfc_dewp_123.txt.gz
Dewpoint
64 62 64 63 52 53 46 43 45 38 37 43 44 43 44 53 54 49 63 63 69 71 73 73 77 76 76 75 74 74 74 73 73 71 70 69 70 72 71 70 69 69 68 68 69 69 70 70 71
62 61 62 60 50 44 44 45 43 39 39 40 42 43 43 56 60 62 61 64 68 71 73 73 77 76 76 75 75 74 73 72 72 71 71 69 70 72 71 70 69 69 68 68 68 68 69 70 71
60 59 56 54 50 45 44 44 41 40 39 40 39 44 53 58 60 60 60 63 68 71 73 74 76 76 75 75 75 74 73 72 70 70 71 70 70 71 70 69 69 68 68 68 68 69 70 70 71
55 53 53 48 46 45 44 44 42 39 39 40 38 46 57 60 60 61 56 64 69 71 72 75 76 76 75 75 74 74 73 72 71 69 70 71 71 71 71 69 68 68 67 66 67 69 69 69 69
50 50 45 42 41 40 39 39 42 40 43 45 47 43 57 62 62 60 53 63 69 70 72 74 76 75 75 74 74 73 73 72 70 69 68 70 71 71 71 69 68 68 66 65 65 67 68 68 66
44 45 36 37 37 36 34 33 32 46 47 44 52 53 59 64 64 64 54 61 66 71 72 73 75 75 75 74 74 73 72 71 70 68 68 69 71 71 70 69 67 67 66 65 64 65 67 66 69
44 43 39 36 34 33 33 31 33 44 48 47 54 50 60 62 64 65 64 69 70 71 71 72 72 73 74 74 74 73 72 71 69 67 69 72 71 71 70 69 68 67 66 64 63 63 65 65 68
45 44 37 34 32 32 32 31 35 41 46 53 54 54 55 60 63 63 61 64 70 70 71 72 72 72 71 71 73 73 72 70 69 70 72 72 71 71 70 68 67 66 65 64 62 62 63 64 64
43 37 36 34 30 31 29 28 32 36 35 42 48 51 57 60 61 60 59 65 68 70 70 70 70 71 71 70 71 72 72 71 70 72 72 70 68 68 67 68 66 65 64 62 61 61 63 62 64
39 37 36 32 27 27 28 27 26 24 25 30 37 59 59 60 56 55 57 61 64 67 68 69 69 70 70 69 69 69 68 68 68 69 68 67 66 67 66 66 66 64 62 60 60 61 62 60 56
31 30 32 29 33 34 33 32 32 30 29 28 27 43 58 57 58 57 58 58 60 65 67 66 68 69 69 68 68 66 66 66 67 68 67 65 65 66 64 63 61 60 60 57 59 59 58 54 54
30 30 32 33 36 35 32 33 32 33 33 33 32 27 43 59 61 62 62 61 57 66 68 68 68 68 67 68 66 65 63 63 66 66 66 63 62 64 62 60 59 59 56 57 57 58 57 53 52
32 33 34 34 35 35 34 34 34 34 34 33 32 29 27 26 36 52 61 62 62 64 66 68 68 68 68 68 65 62 60 63 66 66 64 60 60 60 61 60 58 56 51 50 49 51 49 46 47
34 34 34 34 34 35 34 34 34 32 34 32 29 26 26 25 24 23 56 62 63 65 63 65 68 69 68 66 60 58 62 65 67 67 62 57 57 57 58 59 56 48 41 44 47 45 42 41 45
34 32 34 35 34 34 34 33 34 35 34 35 35 35 34 33 26 24 31 58 61 64 64 65 67 68 67 65 63 63 64 66 66 66 64 55 55 53 53 52 40 37 40 42 39 38 39 39 39
35 33 30 31 33 35 33 30 35 36 35 35 35 36 37 38 36 26 26 35 60 63 64 66 67 66 65 63 66 66 66 65 66 66 59 54 52 51 48 43 39 38 38 40 39 40 39 39 38
26 23 23 27 34 34 33 32 35 36 36 37 38 39 40 40 40 41 38 29 55 64 64 64 65 63 65 63 65 65 65 66 65 64 55 53 51 50 44 42 40 39 41 41 40 41 40 38 39
23 23 22 23 32 33 34 32 37 39 40 40 40 40 41 42 43 45 44 34 52 63 64 64 62 61 64 65 66 66 65 66 66 60 55 51 49 46 42 41 39 41 42 41 40 39 40 40 38
24 24 23 28 34 33 32 33 37 39 39 39 40 41 42 43 45 46 47 49 64 64 63 64 63 64 63 64 65 64 64 64 64 54 54 49 45 42 41 40 41 42 41 40 39 39 38 39 38
24 26 27 34 36 32 31 34 36 39 39 40 40 42 45 45 45 46 47 49 46 62 63 64 63 64 63 62 61 64 64 63 63 55 50 48 42 41 41 40 42 41 43 41 41 41 42 42 40
24 27 28 33 36 34 31 32 36 38 40 41 41 44 46 45 45 46 48 50 52 59 61 62 62 62 62 61 62 63 62 61 58 51 51 48 42 44 42 42 43 42 44 42 44 43 43 42 43
23 29 30 32 33 28 29 25 33 34 36 39 43 45 45 46 47 47 49 50 51 55 61 61 60 61 61 61 62 63 61 59 57 55 52 52 47 45 44 45 45 47 47 46 47 47 46 44 42
25 30 30 32 32 32 28 27 32 35 36 38 44 45 45 47 48 49 50 51 53 55 59 60 60 60 60 58 57 61 59 56 55 53 52 52 52 51 49 48 47 46 46 44 43 43 45 46 46
29 31 36 35 33 29 27 29 29 35 37 41 45 45 46 48 50 51 53 55 56 61 62 61 60 58 58 58 58 58 57 57 55 54 53 53 53 52 52 52 51 51 49 47 46 45 43 43 43
28 30 24 23 24 25 32 30 32 36 41 44 45 45 47 48 49 51 55 55 59 58 59 60 61 59 58 58 57 59 59 58 57 56 55 52 51 52 52 52 52 51 51 51 50 49 48 47 45
26 31 24 11 21 25 33 26 33 38 45 46 45 46 47 48 49 51 54 57 57 59 59 59 58 57 57 58 57 57 55 55 55 54 54 53 51 52 52 52 52 52 51 51 51 51 50 47 46
25 25 33 30 32 28 30 31 36 37 41 42 43 46 46 47 48 50 51 54 58 58 58 58 57 57 56 56 56 55 55 54 54 54 54 53 54 51 51 51 51 52 51 51 50 49 47 46 45
26 30 26 32 17 20 23 22 23 35 38 41 42 44 46 47 48 49 50 52 54 54 55 56 56 55 55 54 55 55 55 55 54 54 54 54 55 54 53 52 51 51 50 49 46 46 44 43 42
27 25 24 26 29 23 22 22 28 35 40 40 42 43 45 46 47 48 48 50 51 52 51 51 52 52 51 50 50 51 51 52 52 52 53 52 52 51 50 48 48 47 46 46 45 44 40 39 37
22 19 17 22 20 23 23 24 35 37 39 40 42 40 44 47 46 46 45 47 46 48 48 45 43 42 45 45 42 41 43 45 47 48 50 50 50 49 48 48 48 48 48 48 47 44 39 38 36

GFSSGP_sfc_dewp_126.txt.gz
Dewpoint
63 62 64 62 49 51 46 45 47 44 40 41 43 43 48 52 53 47 64 67 69 72 72 75 76 76 76 75 75 74 74 73 70 70 70 71 72 70 70 69 68 68 68 69 70 71 71 71 72
61 61 62 59 47 42 42 47 45 43 40 40 40 45 48 56 60 62 63 68 69 72 72 74 77 76 76 75 75 75 74 73 71 70 70 72 72 70 70 69 69 68 68 68 70 71 71 71 71
58 60 55 53 48 43 44 44 43 44 41 39 38 49 56 58 60 62 62 69 71 72 71 74 76 76 76 75 76 75 74 73 72 70 70 71 72 70 70 69 68 68 68 69 70 70 70 71 71
54 53 51 49 46 47 45 45 45 39 39 45 46 46 58 63 61 61 66 69 71 72 71 75 76 76 76 75 75 75 73 72 72 72 70 70 71 70 69 68 68 67 68 69 69 68 69 70 70
51 49 44 42 42 41 40 39 38 36 40 46 49 50 58 64 64 62 65 68 71 72 72 74 76 76 76 75 75 74 73 72 71 72 71 71 71 70 69 68 68 66 66 68 69 68 67 69 69
44 44 37 37 39 38 35 33 30 44 46 47 48 49 59 64 64 64 62 67 70 71 73 73 74 75 75 75 74 74 73 71 70 70 71 72 71 70 68 68 67 66 64 66 68 67 68 69 68
43 42 38 37 36 33 33 29 38 38 46 46 52 47 53 61 65 63 62 66 70 72 72 73 72 73 74 74 74 73 73 71 70 68 70 72 71 70 69 68 67 66 64 64 67 67 67 68 67
45 43 38 35 33 32 32 28 34 28 44 52 55 52 50 61 65 66 65 64 65 70 71 72 72 72 71 72 73 73 73 71 70 70 72 72 71 71 69 68 67 66 64 62 66 66 65 66 66
43 36 35 35 26 26 29 28 32 29 26 36 51 54 56 61 61 63 63 64 63 63 65 71 71 71 71 71 71 72 73 71 70 71 72 71 69 67 66 67 66 65 63 61 64 65 65 65 65
39 36 34 33 28 29 32 33 31 31 30 29 35 57 58 59 57 58 60 60 62 62 62 60 70 70 70 71 70 69 68 67 69 70 68 68 67 65 65 66 66 64 61 61 64 64 64 61 59
34 29 31 30 32 35 33 32 35 33 32 32 30 33 57 57 55 53 57 59 60 61 61 59 65 70 69 69 69 68 67 68 69 67 67 66 66 66 64 63 62 58 60 57 60 59 54 55 55
28 29 31 34 36 35 33 34 33 34 34 35 35 34 56 57 57 55 56 58 54 57 58 59 68 69 68 69 68 67 66 66 68 67 65 66 65 63 61 60 59 58 57 57 57 57 55 54 54
32 33 34 34 35 35 34 34 34 33 35 35 34 32 31 33 40 56 58 58 56 57 59 64 66 66 68 68 67 65 64 65 67 66 64 65 64 62 60 59 58 56 55 56 53 51 50 52 53
34 34 34 34 34 36 33 34 35 35 36 36 36 37 37 37 36 31 34 62 58 58 63 64 64 64 69 67 66 64 63 65 67 66 63 62 63 61 60 58 56 52 50 47 49 45 49 50 52
35 32 34 34 36 33 35 31 35 36 36 37 38 39 40 40 41 41 40 49 61 60 64 66 66 68 67 67 65 65 61 65 66 65 60 60 59 60 59 57 54 49 43 45 40 40 45 48 51
34 29 26 27 35 35 33 30 35 37 39 39 40 40 41 42 43 45 47 46 45 64 62 63 63 66 66 66 64 65 64 65 66 66 59 58 57 57 57 53 47 42 42 41 40 40 42 43 48
26 22 24 25 33 34 32 31 37 40 39 39 39 40 41 42 43 45 47 48 48 63 62 62 64 66 66 65 67 65 64 65 66 66 56 56 54 54 53 44 40 40 41 40 41 40 40 41 42
22 23 23 23 28 33 33 34 38 40 39 39 39 41 42 44 45 46 47 48 51 61 63 64 64 65 64 65 66 65 66 65 64 61 55 52 52 48 45 41 39 41 42 41 40 39 40 39 39
25 24 24 28 32 33 32 35 38 39 40 40 40 41 43 45 46 46 47 48 51 60 62 61 62 62 64 64 64 64 63 65 62 56 53 54 49 47 41 40 41 42 40 40 39 39 38 39 39
25 26 25 31 34 34 32 35 37 39 40 40 41 42 43 46 46 46 47 48 50 55 62 62 61 62 62 61 62 63 64 63 62 60 57 55 52 42 40 40 41 41 41 39 40 40 41 42 40
23 25 26 28 34 33 33 32 35 37 39 40 41 45 46 45 46 48 48 49 51 53 59 61 62 62 62 62 62 63 63 62 58 56 55 54 50 42 39 41 41 41 42 41 41 42 42 43 43
22 28 28 29 32 28 28 25 33 35 36 38 43 45 45 46 48 49 50 50 51 53 60 61 61 60 60 61 60 60 60 59 56 55 56 54 50 46 43 42 42 43 44 44 44 45 43 43 41
23 30 28 30 31 31 28 27 28 36 36 38 43 45 46 48 49 50 51 51 53 55 59 59 60 59 57 58 60 60 59 56 54 54 53 52 52 51 50 48 46 46 46 46 46 45 45 45 44
28 32 30 36 33 29 27 28 26 33 36 42 44 45 47 48 49 50 54 54 57 60 59 59 59 57 57 57 59 58 55 53 52 52 52 52 52 52 52 51 50 50 48 46 44 43 43 43 44
28 25 21 18 24 25 31 28 30 36 43 44 44 46 47 48 48 51 54 56 57 57 58 59 58 58 56 57 58 57 56 54 53 53 52 51 51 52 52 52 51 51 51 50 49 48 47 46 46
26 27 21 3 18 22 32 26 30 40 45 45 45 47 47 48 49 50 53 55 57 58 59 58 57 57 57 57 56 56 56 56 56 55 53 52 52 52 52 52 52 51 51 51 51 51 50 47 46
25 25 32 27 29 26 29 30 35 40 43 42 44 46 47 48 49 50 51 54 55 57 57 56 56 56 56 56 55 55 54 54 54 54 54 53 52 52 52 51 51 51 51 51 51 50 48 47 45
25 32 27 29 18 18 23 21 22 32 38 42 44 46 46 47 48 48 50 52 52 54 55 54 54 53 54 55 55 54 54 54 55 54 54 54 52 51 51 51 51 51 50 49 49 48 46 45 43
27 27 26 26 27 21 21 22 25 34 39 41 42 45 46 47 46 46 48 50 51 50 50 51 51 51 51 52 53 52 53 53 53 53 53 52 53 53 52 51 51 50 49 48 47 46 43 42 39
23 19 19 20 21 22 22 23 36 37 40 42 41 43 46 46 45 45 46 46 46 47 45 46 48 49 49 49 47 48 49 50 51 50 50 50 49 48 48 48 47 47 46 46 43 42 39 38 36

GFSSGP_sfc_dewp_129.txt.gz
Dewpoint
61 61 63 60 45 49 43 45 48 45 41 41 41 44 45 51 50 44 64 68 69 68 72 75 77 76 76 75 74 74 72 70 70 71 73 72 70 69 69 68 68 68 69 71 71 72 72 72 72
60 62 62 58 43 38 35 47 45 44 43 43 39 52 48 55 60 63 65 68 68 69 71 74 77 76 76 75 75 74 72 71 70 70 71 72 70 69 69 68 68 68 70 71 71 72 72 72 72
57 60 56 51 46 40 39 44 44 41 38 39 40 55 57 59 60 63 64 69 69 70 71 74 76 76 76 75 74 75 73 71 70 70 72 71 70 68 69 68 68 68 69 71 70 71 71 71 71
53 52 50 48 44 48 45 44 40 37 35 45 46 49 61 64 62 62 68 69 71 71 71 75 76 76 75 74 74 74 73 71 70 71 72 71 70 68 69 68 68 68 69 69 70 70 70 71 71
51 48 42 41 42 43 40 39 32 34 38 44 49 47 59 63 64 63 68 71 71 71 72 74 75 75 75 74 74 74 73 72 71 71 72 71 70 69 68 68 68 68 68 68 68 70 69 70 70
44 43 38 35 38 38 36 29 32 31 44 45 45 46 59 63 62 62 66 70 72 71 71 73 74 74 74 74 74 73 72 72 72 71 72 71 70 69 69 67 66 68 68 68 68 69 69 69 69
43 40 36 35 36 35 34 28 30 27 43 41 51 47 52 61 63 63 65 68 71 72 72 72 71 72 74 74 74 73 72 71 72 72 72 71 71 69 69 67 65 66 69 68 69 69 68 68 67
46 42 38 36 30 30 31 29 32 28 30 36 53 48 47 61 65 64 65 65 65 67 69 65 65 70 71 72 73 73 72 72 71 71 71 71 71 70 69 67 65 64 68 67 68 68 67 67 66
43 37 35 34 28 24 29 31 31 31 31 30 51 54 56 62 64 63 63 64 64 65 65 62 63 62 68 70 71 72 72 72 70 70 71 70 68 67 67 67 66 63 67 67 66 67 66 66 65
39 33 31 35 29 26 32 33 32 32 32 29 32 42 58 59 56 60 60 61 63 65 65 63 61 62 63 70 70 69 70 68 67 69 68 68 66 65 65 67 66 62 65 66 66 67 65 62 59
36 28 31 31 31 32 33 32 35 32 32 32 32 32 40 58 55 55 58 59 61 63 63 61 61 62 62 66 68 68 67 68 68 67 67 67 65 66 65 64 62 59 63 61 60 59 56 56 56
28 31 29 33 35 36 34 34 32 35 34 36 36 35 43 45 52 55 54 57 57 59 59 58 61 62 63 65 68 68 67 68 68 66 67 66 65 63 62 61 58 57 57 57 56 55 54 55 55
31 33 34 34 35 35 35 34 33 36 36 37 38 38 38 38 38 34 48 56 56 55 57 60 62 62 66 67 68 67 66 68 67 66 66 65 64 62 60 59 57 56 56 56 54 53 54 54 55
34 34 34 34 35 35 35 34 34 36 37 39 40 40 40 41 41 44 45 47 58 56 58 61 61 65 64 64 67 66 66 67 67 65 65 65 63 61 59 57 55 54 54 50 50 53 53 53 54
36 33 31 32 34 35 33 32 35 37 38 39 39 40 41 42 43 45 46 47 49 58 58 62 64 65 64 66 65 66 65 66 66 65 64 64 62 60 58 56 54 51 46 46 45 50 51 52 53
31 26 23 25 33 35 33 30 37 40 39 38 39 40 41 43 44 45 46 47 48 56 60 62 63 63 63 63 64 65 65 65 66 65 63 62 62 60 57 54 51 46 45 42 46 50 50 50 52
25 22 23 25 29 34 32 30 37 40 39 39 40 41 42 43 45 46 47 47 48 52 62 62 62 63 62 62 64 64 66 65 66 66 62 61 60 59 56 52 48 43 42 42 46 45 49 49 50
20 22 23 23 27 33 32 32 37 39 39 39 40 42 43 44 45 46 47 48 49 54 63 63 64 64 64 64 64 64 65 65 64 65 61 60 58 58 54 48 43 42 42 41 42 42 42 48 49
24 23 23 27 31 35 32 32 36 39 39 39 41 44 45 45 46 47 48 48 50 57 63 63 63 65 65 64 64 64 64 64 63 63 60 58 56 56 50 43 40 42 41 40 40 40 41 39 41
24 25 24 28 34 34 33 33 37 38 39 40 42 45 45 45 46 47 48 49 50 54 62 62 62 64 64 64 63 64 64 63 61 61 59 58 53 51 50 40 40 41 41 39 39 40 41 40 40
21 24 24 25 30 33 32 30 35 36 38 38 42 45 45 46 47 49 49 50 51 54 61 61 61 62 62 63 63 62 61 60 58 58 57 55 54 51 45 40 41 40 41 40 40 41 41 41 42
20 26 28 28 29 27 29 26 30 35 36 38 43 44 45 47 49 49 50 51 51 52 61 61 62 61 61 61 61 61 59 56 55 55 54 53 51 51 51 42 40 40 42 40 41 42 42 42 41
21 29 29 29 29 30 29 26 26 34 35 39 43 44 46 47 49 50 51 52 53 55 59 59 58 58 59 60 59 59 58 56 55 54 53 54 53 52 51 46 43 43 44 44 44 43 43 42 42
31 31 30 34 32 28 28 28 26 33 36 41 44 45 47 48 49 51 55 55 58 59 59 58 57 57 57 59 58 58 56 55 54 53 51 51 52 52 52 51 50 48 46 45 45 44 43 44 45
29 27 22 22 21 24 30 28 28 35 41 43 44 46 47 49 49 51 55 56 56 58 58 57 56 56 57 58 57 55 54 53 52 52 51 51 51 51 51 51 51 51 50 50 48 45 45 45 45
26 26 20 2 14 19 31 24 27 41 42 43 45 47 48 48 49 51 53 56 57 57 57 57 57 56 56 56 57 56 56 55 54 53 52 52 52 51 52 52 51 50 50 50 51 50 49 46 45
26 26 30 26 26 24 28 27 34 42 41 42 44 46 47 48 48 49 51 53 55 56 56 56 56 56 56 56 55 55 56 55 55 53 53 52 52 52 52 51 51 51 50 50 50 50 48 47 46
25 32 26 27 16 16 21 21 23 27 37 42 43 45 46 48 48 48 50 51 51 53 54 54 54 54 55 55 55 54 54 54 54 54 53 52 52 52 51 51 50 50 50 49 48 48 47 46 45
27 27 25 27 26 19 18 19 25 29 39 41 42 44 46 47 46 47 48 49 49 50 51 52 52 52 52 53 53 53 53 53 53 53 53 53 51 50 50 51 50 50 49 49 47 47 45 44 43
26 24 22 20 18 22 21 21 33 36 41 43 41 43 47 46 45 45 46 47 47 47 49 49 49 49 49 50 51 51 52 52 51 51 51 50 50 50 50 50 49 48 47 47 47 43 41 41 37

GFSSGP_sfc_dewp_135.txt.gz
Dewpoint
59 61 64 59 44 46 39 41 48 39 37 40 39 40 40 55 50 47 68 67 67 66 70 73 75 75 74 73 73 71 72 73 73 72 70 69 69 69 70 70 71 72 72 72 72 73 72 72 72
59 62 62 56 41 31 26 42 36 38 37 38 40 49 53 54 60 63 66 68 66 66 70 72 75 75 75 73 73 72 72 73 73 73 70 69 69 68 69 69 71 71 72 72 72 72 72 72 72
57 59 55 50 42 30 31 42 37 35 35 45 45 56 59 59 61 63 64 68 66 67 71 73 75 75 75 74 73 73 72 73 73 72 70 69 69 68 68 70 71 72 72 72 72 72 72 72 71
56 55 50 47 40 44 43 42 32 33 41 44 46 47 60 63 61 63 66 68 65 68 72 74 75 74 74 74 73 73 72 72 73 73 71 68 68 68 68 70 71 71 71 71 71 71 71 71 71
51 46 42 39 39 45 43 39 30 29 39 37 46 46 56 62 63 66 68 67 66 68 72 73 74 74 74 74 73 72 72 72 72 73 72 69 67 68 68 69 71 71 71 71 71 71 71 71 71
47 41 28 25 30 37 38 34 30 28 31 33 43 49 52 63 62 65 68 69 67 68 71 73 74 74 73 74 73 73 72 72 73 72 72 70 67 68 67 68 68 68 70 70 69 70 71 71 70
44 36 28 31 33 35 32 30 29 29 31 28 48 47 47 58 62 65 67 71 70 69 71 71 71 72 73 74 73 73 73 72 72 73 72 71 68 68 68 68 68 69 70 69 69 69 70 70 70
46 42 38 38 32 28 32 31 30 29 30 32 49 32 43 57 63 66 67 68 71 70 68 67 68 68 70 71 72 73 73 73 72 72 72 71 69 68 68 69 69 68 69 69 68 69 69 69 69
44 38 34 34 31 29 28 31 32 31 30 33 34 44 50 61 64 64 65 66 68 67 66 66 66 66 66 67 68 71 72 73 72 72 71 70 68 65 65 68 70 69 69 68 68 68 68 68 66
39 33 32 36 33 29 29 32 32 32 33 33 33 35 39 58 57 57 62 64 65 66 65 66 66 66 66 65 65 65 65 68 70 69 69 68 66 65 62 67 70 69 68 68 67 67 66 64 62
37 31 32 34 36 31 31 32 33 33 34 35 36 36 39 42 43 46 50 57 62 65 67 64 65 66 66 67 67 65 66 66 68 69 69 68 66 65 62 63 67 66 68 64 65 62 60 60 59
30 32 32 32 33 35 33 33 33 35 36 38 40 39 41 42 43 43 47 49 53 60 64 67 66 64 64 66 65 65 64 68 68 68 68 67 66 65 62 61 65 65 65 63 60 58 59 59 59
31 32 33 33 35 36 34 34 34 36 37 40 41 42 42 42 44 45 46 48 50 56 60 65 66 63 62 62 64 64 64 65 67 67 68 67 67 64 62 59 62 62 63 59 57 57 58 58 58
33 33 35 36 34 35 34 34 35 36 39 39 41 42 42 43 44 45 46 47 48 49 53 59 62 61 63 64 65 66 67 66 66 67 68 66 66 64 61 58 60 60 61 57 56 56 57 57 57
36 33 29 29 30 34 35 33 34 38 39 39 41 43 45 45 45 45 47 47 48 49 51 56 59 62 65 65 65 66 63 67 66 66 67 66 65 63 59 57 59 58 58 55 56 56 57 57 57
27 27 26 25 29 34 33 32 35 40 38 39 41 43 45 45 45 46 47 47 47 48 50 56 59 62 63 64 64 65 63 64 67 67 66 65 64 62 58 57 57 55 55 55 55 56 56 56 56
24 20 23 25 27 31 33 32 34 40 39 39 41 43 44 45 45 46 47 48 49 49 50 54 59 61 63 63 62 64 64 63 66 66 66 64 62 60 57 56 55 52 53 55 55 56 55 55 55
15 21 22 24 25 31 32 33 34 39 39 39 41 43 44 44 44 46 48 50 50 51 53 55 59 61 63 64 63 63 64 64 66 65 65 63 63 59 56 55 51 49 53 54 55 54 55 55 54
22 22 22 24 27 34 34 34 35 37 39 40 43 43 43 43 46 49 50 50 51 53 55 61 59 61 63 62 61 61 61 63 65 64 64 63 62 59 54 53 48 48 52 54 54 53 53 52 51
24 22 23 26 28 33 32 33 35 38 39 42 43 43 42 45 47 48 49 50 51 53 56 61 61 62 63 63 63 63 62 63 62 62 62 62 62 57 53 49 47 46 51 53 52 53 52 51 51
23 23 22 22 28 31 31 31 31 36 38 41 43 43 46 46 48 49 50 52 53 54 59 61 62 62 63 63 63 62 61 60 58 58 57 58 61 60 52 48 45 45 49 51 52 53 52 50 48
21 24 24 26 26 25 30 26 30 34 35 40 42 44 47 48 50 51 52 55 56 58 61 61 61 63 64 64 63 61 61 58 58 57 56 57 56 56 55 45 44 43 47 49 51 51 51 51 49
22 30 29 29 27 30 30 28 28 33 33 40 42 45 47 49 50 53 53 53 56 58 58 60 60 61 62 63 62 62 60 58 58 57 56 56 56 55 53 46 42 42 44 46 49 49 48 50 49
32 31 29 32 33 29 29 28 26 29 35 41 42 46 48 49 51 52 54 55 57 58 57 57 58 59 60 60 61 60 59 57 56 56 56 55 55 55 54 51 47 45 44 44 47 48 47 48 47
29 28 28 20 29 25 30 30 29 32 42 43 43 46 48 49 51 53 54 53 56 57 56 56 57 57 57 57 57 57 57 57 56 55 54 53 53 54 53 53 51 49 48 48 46 46 46 46 46
27 27 28 18 17 24 29 30 28 37 42 43 45 47 47 49 51 52 55 56 56 57 57 56 57 56 56 56 56 55 56 55 55 54 53 52 52 52 53 52 51 50 49 50 49 48 48 47 47
29 28 27 28 27 28 28 28 28 42 42 42 45 45 46 48 49 51 52 54 55 55 55 56 55 55 56 56 55 55 55 54 53 53 53 52 52 52 52 51 51 50 49 49 49 47 46 46 45
28 31 29 28 23 16 15 20 21 28 33 42 44 44 46 48 48 50 51 52 53 54 54 55 54 54 55 56 55 55 54 54 54 54 53 52 52 52 51 51 50 50 49 48 48 47 47 46 46
32 31 25 28 24 16 11 11 24 26 33 41 43 45 46 47 47 48 49 50 51 52 52 52 53 53 54 54 55 54 54 54 53 53 52 52 52 52 51 51 51 51 50 49 49 48 47 47 45
31 29 26 19 20 24 19 18 28 27 36 42 43 45 47 47 46 47 48 48 48 48 48 48 50 50 51 52 52 52 53 53 52 52 51 51 51 51 51 51 50 49 49 48 47 46 45 45 43

GFSSGP_sfc_dewp_141.txt.gz
Dewpoint
59 56 60 58 42 36 29 32 41 40 36 36 39 43 43 45 51 54 66 66 63 62 71 72 75 74 73 72 71 70 70 70 70 69 69 70 72 72 73 73 73 73 73 73 73 72 72 72 72
51 56 57 48 35 27 24 33 38 37 37 39 40 44 45 53 57 60 63 64 65 60 72 72 75 75 74 74 73 72 71 72 71 70 69 69 70 71 72 72 72 72 73 73 72 72 72 72 71
53 52 48 39 31 23 23 33 35 34 36 39 39 42 50 56 58 59 63 64 62 60 71 71 75 76 75 74 74 73 73 73 72 70 69 69 70 70 71 72 72 72 72 72 72 72 71 71 70
47 48 40 35 28 28 26 36 32 29 35 38 39 38 52 59 60 63 65 63 59 60 69 74 75 75 75 74 74 73 73 73 72 71 70 69 69 70 71 72 72 72 72 72 72 72 70 70 70
51 46 36 31 27 28 32 34 29 25 28 30 37 35 46 57 61 64 65 61 57 59 68 72 75 75 74 74 74 73 74 73 73 72 70 69 69 70 71 72 72 72 72 72 71 71 71 71 71
42 37 25 22 22 26 29 29 25 26 24 24 28 32 46 56 59 64 66 62 56 59 62 70 74 74 74 74 74 73 74 73 73 72 71 70 69 71 71 71 71 71 71 71 71 71 71 70 70
40 31 22 19 20 22 25 26 24 26 27 26 30 29 40 51 60 63 65 67 63 60 61 68 72 71 74 74 74 73 73 74 73 72 72 70 69 70 71 71 71 71 71 71 71 71 70 70 70
41 33 23 23 20 24 27 26 27 27 26 31 30 28 33 47 56 62 64 66 70 63 61 67 70 70 70 69 73 72 72 73 72 72 71 70 69 70 70 71 71 70 70 70 70 70 70 70 69
41 33 25 25 27 23 28 26 29 30 28 29 30 31 36 39 51 58 60 65 67 69 65 68 69 69 70 70 70 73 71 71 72 71 71 69 66 65 66 68 71 70 70 70 70 70 69 68 67
37 33 26 28 27 25 27 27 26 29 28 29 31 32 35 39 40 43 51 54 64 66 67 66 67 69 69 70 71 71 72 69 71 70 68 66 64 62 62 68 71 70 69 69 69 69 69 67 62
35 30 29 27 28 28 27 27 29 30 31 31 32 34 35 38 39 36 37 42 51 60 67 68 67 68 69 70 70 69 69 68 67 68 69 68 68 64 64 66 65 69 68 65 65 65 63 59 60
31 29 28 31 31 33 31 32 31 32 34 37 38 38 38 37 37 39 39 40 42 45 56 67 67 68 68 70 69 68 68 67 65 67 67 66 67 65 63 63 63 69 65 62 60 57 56 55 54
30 28 30 31 33 33 34 34 33 32 33 37 38 40 39 39 39 40 40 42 44 43 47 57 65 66 66 67 70 69 67 67 67 66 65 66 63 64 66 66 66 63 62 61 55 54 53 52 51
32 32 32 32 33 33 33 31 32 33 34 37 38 39 39 39 40 41 41 40 41 42 45 48 52 63 67 66 66 66 67 66 66 65 63 64 62 65 65 65 66 64 59 57 54 52 52 53 51
33 31 28 27 29 31 33 31 30 33 34 36 36 37 39 41 42 41 40 41 41 41 43 47 51 54 63 66 65 66 66 65 66 64 61 59 63 66 64 62 65 62 58 55 53 52 53 54 52
29 26 23 23 27 28 32 25 25 32 34 35 35 35 37 40 40 41 42 43 43 43 43 45 47 50 56 64 65 63 63 65 64 64 64 61 65 66 63 61 61 60 57 55 52 52 53 52 52
26 17 19 20 25 24 29 25 24 34 34 34 34 34 35 37 40 41 41 44 45 47 46 47 48 49 55 60 64 64 64 63 65 67 67 65 65 65 64 59 61 59 57 53 52 52 52 51 51
20 19 16 16 20 24 23 23 24 25 34 35 33 34 36 38 38 42 45 46 47 48 49 49 50 50 56 60 62 62 62 61 64 68 67 65 65 65 63 61 60 57 56 56 54 50 51 51 52
24 23 21 21 18 21 22 22 26 28 32 35 37 37 38 38 43 44 47 47 47 48 51 51 52 51 56 62 61 60 59 60 65 67 66 65 64 63 61 61 58 58 56 56 54 52 51 52 50
27 22 22 20 19 21 22 21 23 26 30 35 38 38 39 43 45 50 51 49 48 48 50 52 52 54 58 62 61 61 60 63 65 65 65 64 63 61 58 59 57 57 57 56 55 54 53 52 50
23 22 21 18 19 19 22 26 26 31 35 39 38 40 42 47 49 51 52 54 56 56 54 55 56 57 60 62 63 63 63 63 63 63 63 62 61 59 58 57 55 56 57 56 56 56 55 52 50
22 22 22 21 19 16 28 16 25 32 35 36 37 39 44 49 49 51 53 54 56 58 60 60 58 59 62 62 63 60 60 60 60 60 62 61 59 59 57 55 54 55 56 56 56 56 55 54 50
24 24 22 23 22 21 22 23 21 30 31 32 35 42 46 48 50 52 54 55 56 58 60 62 62 62 63 63 63 63 61 58 58 59 59 59 58 56 55 54 53 54 56 55 56 55 53 53 52
27 26 27 27 25 20 21 25 16 27 26 31 37 42 46 48 50 52 54 55 56 57 58 60 59 60 62 63 63 62 60 58 57 57 57 57 57 55 54 52 53 52 53 54 56 56 55 53 52
28 24 27 25 30 23 28 26 21 30 33 33 38 43 47 48 50 52 54 54 56 56 57 58 58 58 60 61 62 61 60 59 58 58 56 56 55 55 54 54 52 51 50 52 55 55 55 54 54
26 24 29 30 24 29 27 26 24 29 36 40 42 45 47 49 49 52 53 55 56 55 56 56 57 57 57 57 57 58 59 58 57 56 56 56 56 56 55 55 53 51 49 49 49 53 55 54 54
22 22 22 24 23 25 26 26 32 34 37 40 43 45 47 48 50 51 52 54 54 55 55 55 55 56 56 57 56 56 56 57 55 56 56 55 54 54 55 53 52 52 51 49 48 50 53 51 52
25 24 21 23 30 21 16 18 18 34 34 37 41 43 46 48 49 51 51 53 54 54 55 55 55 55 55 56 56 56 55 55 55 54 54 54 53 53 52 52 51 51 51 49 48 49 48 48 49
24 24 24 24 20 18 13 13 18 28 32 32 38 43 46 48 49 50 52 52 53 53 53 54 54 54 54 55 55 55 54 54 53 53 52 53 53 52 52 52 51 51 51 50 49 48 47 47 47
22 21 20 18 19 20 15 17 20 23 26 30 38 43 45 47 49 50 51 51 51 51 53 53 53 53 53 54 54 53 53 53 52 53 53 52 51 51 51 51 51 51 51 51 50 49 48 47 47

GFSSGP_sfc_dewp_144.txt.gz
Dewpoint
58 53 58 62 52 46 38 41 43 45 41 37 39 41 44 53 54 55 66 66 63 67 72 73 75 74 72 72 72 71 71 70 70 70 70 72 73 73 73 73 73 73 73 73 73 73 72 72 72
55 50 61 58 42 38 33 38 40 41 38 38 40 41 44 54 57 61 64 65 65 67 72 72 75 75 74 73 72 71 70 71 70 69 69 71 72 72 73 72 73 73 73 73 72 72 72 71 71
51 50 55 50 41 32 34 36 39 36 37 39 39 42 49 57 59 60 64 65 64 68 71 72 76 75 74 74 74 72 72 72 71 70 69 70 71 72 72 72 72 73 73 73 72 72 71 71 70
49 53 48 42 37 35 38 37 35 32 34 39 38 38 57 59 60 63 65 60 62 68 70 75 76 76 75 75 74 74 73 72 71 70 69 69 70 71 72 72 72 72 73 73 72 71 70 71 72
54 54 45 38 34 31 34 35 32 29 28 31 33 35 56 57 63 64 64 58 58 66 70 73 76 75 75 75 74 74 74 73 73 71 70 69 70 71 72 72 72 72 72 72 71 70 71 71 71
50 43 37 32 32 29 30 33 35 30 25 26 29 30 53 58 61 64 65 59 57 62 70 72 75 76 75 75 74 74 74 73 73 72 72 70 70 72 72 72 72 72 72 71 71 71 71 71 70
49 44 34 28 27 30 31 28 30 29 31 30 31 28 48 54 60 62 64 66 67 63 69 71 72 74 75 74 74 74 73 73 72 72 72 71 71 71 71 71 71 71 71 71 71 71 70 70 69
48 41 32 29 27 31 30 30 31 30 30 33 33 29 41 49 57 62 65 65 68 68 66 71 71 71 71 72 73 73 73 73 72 72 72 70 71 71 70 71 71 71 71 71 71 70 70 69 70
50 41 34 31 36 35 30 32 30 35 30 30 34 32 36 42 52 56 60 65 66 68 68 69 70 70 70 70 71 72 72 72 72 71 71 69 65 68 68 70 71 70 71 71 70 70 69 68 68
42 39 36 31 30 32 32 32 29 31 30 28 29 31 36 39 37 41 55 56 65 65 66 68 68 68 69 70 69 69 69 68 69 70 68 67 64 64 64 69 70 70 70 70 70 69 69 65 61
40 37 34 31 33 32 30 29 30 29 33 33 34 34 36 40 38 37 36 42 48 59 66 67 68 68 68 69 68 68 69 68 67 68 67 66 66 64 66 66 68 68 69 67 68 66 66 62 61
34 32 32 33 36 34 32 31 31 33 35 38 40 38 39 37 36 38 39 40 40 44 51 67 67 67 68 69 69 68 68 67 67 67 67 64 64 64 65 67 67 67 67 65 64 64 58 58 60
32 31 29 32 34 35 35 35 34 34 34 36 38 42 40 38 39 40 40 42 43 43 47 52 65 66 67 68 68 67 67 66 66 66 65 63 63 62 63 64 67 65 65 61 59 55 54 52 52
34 33 33 33 32 34 33 34 34 34 34 33 38 39 39 39 39 40 41 40 40 42 45 49 50 62 67 66 67 67 66 66 65 66 64 62 63 63 62 62 65 66 64 57 54 53 53 53 51
31 31 32 31 31 31 33 32 31 32 32 32 36 37 38 40 42 41 41 40 41 42 43 47 51 52 57 67 66 66 67 67 66 65 63 63 61 61 59 62 66 66 55 53 52 53 53 52 52
30 30 29 27 26 31 32 28 30 30 31 34 35 34 38 39 40 40 41 42 42 43 43 45 48 52 54 65 67 66 65 67 66 66 63 61 60 58 60 62 65 66 56 54 53 54 53 52 52
30 26 24 28 29 28 31 30 29 34 35 34 33 33 34 35 37 39 43 45 45 44 45 47 49 49 53 57 64 64 65 65 66 66 64 60 61 62 63 62 64 64 55 53 52 53 53 52 52
25 24 23 22 24 25 26 25 25 24 32 33 33 33 33 35 39 46 48 49 48 47 48 49 50 51 51 58 63 64 64 64 65 66 66 64 62 64 64 63 64 60 56 52 52 52 52 52 51
26 24 25 25 24 23 23 23 23 25 29 34 35 35 37 39 44 50 52 52 51 49 49 51 51 52 52 60 61 61 62 61 62 65 66 65 65 64 63 63 62 57 56 53 50 51 51 51 50
26 25 26 25 25 24 23 22 22 22 28 31 34 37 39 44 48 50 51 53 55 56 51 51 52 53 54 62 60 61 62 63 64 64 64 65 64 64 62 61 59 57 55 54 52 52 52 51 50
27 25 23 22 25 23 21 20 21 26 29 39 38 39 44 48 49 50 51 54 55 57 59 56 53 54 55 61 63 63 63 62 62 63 63 63 64 62 61 59 59 57 55 55 53 53 52 50 49
26 26 25 24 25 19 24 20 21 31 34 38 38 38 46 48 49 50 53 55 56 58 61 61 60 57 60 61 61 59 60 58 60 60 62 61 61 61 61 59 60 58 57 55 55 54 54 51 49
24 31 28 27 24 23 22 21 22 28 34 35 35 41 46 49 50 50 54 56 57 58 60 61 61 62 61 61 62 61 59 58 59 60 60 59 58 59 60 58 56 56 57 55 54 54 53 52 50
29 28 29 29 28 23 21 21 23 29 31 33 36 42 47 48 49 51 54 56 57 58 59 59 59 60 61 61 61 59 57 57 57 57 58 58 56 55 55 56 56 57 57 55 55 54 53 53 51
30 27 31 26 28 25 30 26 26 31 33 36 38 44 47 48 49 52 55 55 56 56 57 58 58 57 59 61 61 59 58 57 56 56 57 56 55 54 53 53 53 52 52 55 56 55 55 53 52
26 27 33 26 28 32 30 27 25 33 36 39 41 46 48 48 49 50 54 55 55 55 56 56 56 56 57 57 58 59 59 58 57 57 56 56 56 54 54 53 52 50 48 49 51 54 55 54 54
26 26 27 26 25 25 31 29 34 36 38 40 43 46 47 48 50 50 53 54 54 55 55 55 55 56 56 56 56 56 57 56 56 56 55 55 56 55 55 54 52 52 50 48 48 50 52 51 52
24 27 24 26 24 23 22 18 24 32 36 40 42 45 47 49 49 51 53 53 54 55 55 55 55 55 56 56 55 55 55 55 55 55 54 53 53 54 54 54 52 51 50 49 48 48 48 47 48
24 25 24 25 25 20 20 19 22 33 35 37 40 44 47 48 48 49 52 53 53 53 54 54 54 54 54 55 54 54 53 53 53 53 53 52 52 52 52 52 52 51 51 50 50 49 48 48 47
23 23 24 25 23 22 21 19 17 32 33 36 37 42 47 48 48 49 51 52 52 53 53 53 53 53 54 54 53 53 53 53 52 51 52 52 52 52 51 51 51 51 51 51 50 49 48 48 47

GFSSGP_sfc_dewp_150.txt.gz
Dewpoint
58 53 54 57 41 41 34 37 42 38 37 38 39 54 56 58 57 52 65 66 72 72 73 73 75 75 73 73 73 73 72 71 70 71 72 72 73 73 73 73 73 73 73 73 73 72 71 71 72
54 52 56 50 35 33 33 36 34 38 38 38 38 52 55 57 62 63 63 70 72 72 72 72 75 75 75 74 73 73 72 71 70 71 72 73 73 73 72 72 73 73 73 73 72 72 71 72 71
52 51 49 44 38 31 31 37 33 34 36 37 37 55 57 58 62 62 64 71 72 72 72 72 75 75 75 74 73 72 71 70 70 70 72 72 73 72 72 72 73 73 72 72 72 72 72 72 72
46 49 44 40 39 39 36 31 32 30 28 35 39 55 58 61 63 63 64 71 71 72 71 74 75 75 75 73 72 71 71 70 70 70 71 72 72 72 72 72 72 73 72 71 71 71 72 72 71
52 50 41 36 35 33 33 33 29 26 26 28 32 53 55 61 64 65 63 71 71 71 71 74 76 75 74 73 72 72 73 71 70 70 70 72 72 72 72 72 72 72 71 71 71 71 71 71 70
45 41 36 36 37 32 31 30 27 29 27 28 33 53 56 59 61 64 67 67 71 71 72 73 75 75 75 74 73 73 73 72 71 71 71 71 72 72 72 72 72 72 71 71 71 71 70 70 69
44 40 32 30 29 26 25 28 24 25 30 31 29 49 53 56 61 64 66 67 68 71 73 73 72 72 74 74 74 73 73 72 72 71 71 71 72 72 72 72 71 71 71 71 70 70 69 69 68
45 37 32 28 27 24 29 28 30 28 32 34 29 47 48 51 60 64 64 66 68 69 71 72 71 72 71 72 73 72 72 72 72 71 72 72 72 72 71 72 71 71 71 70 69 69 70 68 67
42 36 30 30 31 31 29 30 32 34 28 31 31 39 43 52 57 61 63 63 66 68 68 70 71 71 71 70 71 72 73 72 71 71 71 70 68 68 70 70 71 71 71 70 69 69 69 68 67
37 32 31 33 30 30 31 28 30 31 30 31 30 37 42 48 51 54 57 61 62 63 66 69 69 70 70 71 70 70 70 70 68 67 65 64 65 67 67 69 70 71 70 70 69 68 69 64 60
39 34 36 36 35 32 32 29 31 27 29 28 33 36 38 38 38 39 40 60 62 63 65 66 68 69 69 68 67 67 67 68 67 66 65 65 64 64 65 65 65 66 69 67 66 64 60 58 58
34 36 36 35 35 33 32 35 33 32 30 33 36 36 37 37 37 37 40 46 44 61 63 65 67 67 68 68 67 67 67 67 67 66 66 65 63 63 63 63 62 65 65 65 65 64 63 58 57
33 33 33 33 34 33 34 33 33 33 34 35 38 38 37 37 38 39 39 40 41 42 50 64 66 66 67 67 67 67 66 67 66 65 66 64 63 61 61 63 63 62 65 64 63 63 61 57 56
31 32 31 33 34 34 33 33 34 34 35 34 38 38 38 39 39 40 41 40 40 41 43 54 66 66 67 66 66 66 67 66 66 66 65 64 63 62 61 62 63 63 65 65 63 62 55 56 56
35 31 32 32 31 32 34 32 33 34 34 32 36 38 39 39 39 40 41 41 42 43 43 49 56 66 66 66 66 66 66 66 66 65 64 63 63 61 61 62 63 64 65 63 61 53 53 56 56
31 31 29 29 33 33 31 29 31 33 31 30 31 36 38 39 42 46 48 48 49 47 47 46 50 57 63 64 66 66 65 64 65 65 64 63 61 60 60 61 62 64 64 63 59 53 54 56 55
30 25 27 28 30 31 30 29 31 30 31 30 31 35 37 43 49 51 52 52 54 53 53 52 48 50 52 54 64 65 65 64 65 64 63 62 61 60 60 60 62 62 61 61 60 53 54 54 54
26 26 26 25 26 31 29 28 28 29 29 31 32 34 39 46 49 51 52 53 54 55 56 56 51 50 51 54 61 62 65 64 65 64 63 63 62 59 60 60 64 62 61 60 60 53 53 54 54
29 27 25 26 27 26 26 28 27 29 28 26 32 33 46 48 50 51 52 54 55 55 56 57 51 50 53 53 57 59 60 62 64 64 64 63 63 60 61 62 64 62 60 60 59 54 51 51 53
31 29 28 28 28 24 23 23 25 24 24 24 24 37 46 48 48 50 52 53 55 55 57 58 52 50 51 54 59 60 60 61 61 63 64 63 61 62 60 61 63 61 59 59 58 53 51 50 51
31 28 26 25 27 26 22 22 22 24 32 36 36 42 47 48 49 50 52 53 55 55 57 58 57 52 52 55 59 59 60 61 60 61 61 63 62 62 62 61 63 61 59 58 59 54 50 49 49
29 30 29 28 24 21 20 18 20 19 35 40 45 47 48 49 49 51 52 53 54 56 59 59 58 57 54 56 58 58 58 58 58 58 61 60 62 63 63 62 62 61 57 56 58 52 50 49 47
29 29 27 26 23 25 22 20 20 27 35 37 44 46 47 48 49 50 52 55 57 58 59 59 58 58 57 58 58 57 56 56 56 58 60 59 57 62 64 63 61 60 55 52 52 51 50 49 48
30 27 29 29 26 22 23 21 19 22 31 36 43 47 48 48 49 52 55 55 55 57 58 58 57 57 59 58 58 56 56 55 56 57 59 58 57 58 61 62 61 59 58 53 52 50 49 49 48
28 25 23 21 23 21 25 22 22 24 33 37 43 47 48 48 49 52 53 54 55 56 56 57 58 58 58 58 57 56 56 57 56 57 58 57 56 56 57 60 60 58 58 57 53 50 49 49 49
26 25 24 16 22 24 28 26 29 34 35 39 45 48 48 48 51 53 53 54 55 55 56 56 56 57 58 58 58 58 57 56 55 55 57 57 56 56 56 59 60 59 58 58 57 53 52 50 50
25 24 27 24 26 21 25 24 27 39 43 45 46 47 47 48 50 53 54 54 53 55 55 55 56 56 56 57 57 57 56 57 56 55 56 56 55 55 55 57 56 58 58 57 56 55 55 52 51
25 27 24 26 20 19 20 22 20 35 41 45 46 47 47 48 50 52 53 54 54 55 55 55 56 56 55 56 56 55 55 55 55 54 54 54 54 54 54 53 54 55 54 55 55 53 52 49 49
25 25 25 25 26 21 19 20 24 32 39 44 46 47 47 47 49 52 53 54 54 54 54 54 55 54 54 54 54 54 54 54 54 53 53 54 54 54 53 52 52 52 52 52 52 51 49 47 46
25 24 25 23 20 24 21 21 23 31 37 43 46 47 48 48 49 51 52 53 53 53 54 54 53 53 53 53 53 52 52 52 52 52 53 53 53 53 53 52 51 51 51 52 51 50 49 48 46

GFSSGP_sfc_dewp_153.txt.gz
Dewpoint
57 51 55 55 41 38 33 36 40 38 37 37 39 55 56 58 56 50 64 69 71 71 73 73 75 74 73 72 73 72 71 70 70 72 72 72 73 73 73 73 73 72 73 73 72 72 72 72 72
54 51 55 48 33 31 31 36 34 36 37 39 50 55 56 57 62 63 64 68 71 72 72 72 75 75 74 73 73 73 72 71 71 72 71 73 73 73 73 73 72 72 73 72 71 72 72 72 71
50 51 49 41 34 31 32 36 33 35 36 37 44 57 57 58 62 62 64 71 71 72 72 72 75 75 75 74 74 73 72 71 70 71 72 72 72 72 72 72 72 72 72 71 71 72 72 71 71
47 48 44 42 37 37 34 32 33 31 31 34 55 55 58 62 62 64 69 71 71 72 72 73 75 74 74 74 73 73 71 70 70 71 72 72 72 72 72 72 73 72 72 71 71 71 71 71 70
52 48 39 36 34 35 33 34 31 27 28 27 42 54 57 62 64 65 70 71 71 71 71 73 75 74 74 73 72 71 71 70 70 71 72 72 72 72 72 72 73 72 71 71 71 71 71 70 70
45 42 37 33 36 36 30 32 27 27 27 28 52 54 57 59 63 66 70 71 71 71 71 73 75 75 74 73 72 71 72 71 70 70 71 72 72 72 72 72 72 71 71 70 70 71 70 69 69
43 35 32 31 29 26 28 27 23 25 30 31 47 54 55 56 62 66 67 69 71 72 72 73 72 72 74 73 73 73 73 72 71 70 70 72 72 72 71 71 71 71 71 70 70 70 70 69 68
44 37 33 30 28 25 29 31 31 29 31 33 45 49 52 54 63 64 64 67 68 72 72 71 71 71 71 71 73 73 72 72 72 72 72 72 72 72 71 71 71 70 70 69 69 69 69 68 66
42 34 29 28 29 28 32 29 31 33 29 30 32 50 47 53 61 63 63 63 66 67 70 70 71 71 70 71 71 72 72 72 71 71 71 70 68 69 70 71 71 71 69 69 69 69 69 68 66
35 30 30 33 30 28 33 29 30 31 31 31 32 38 47 51 56 56 59 61 60 63 67 69 70 70 70 71 70 70 70 69 68 67 66 66 66 68 68 70 71 70 69 69 69 69 67 64 61
38 32 35 36 35 34 33 31 31 29 28 28 30 37 42 44 46 52 54 60 60 62 65 67 68 69 69 69 68 67 68 67 66 65 65 64 65 66 66 66 66 66 68 66 67 64 60 59 58
34 36 36 37 36 35 31 33 33 30 29 30 33 37 38 37 38 38 42 54 61 62 63 65 67 68 68 67 67 67 65 66 66 65 65 63 63 64 64 64 64 66 65 64 64 61 59 57 57
34 34 34 36 35 34 34 33 32 33 34 34 37 37 37 37 37 38 42 49 46 58 61 64 66 66 67 66 66 67 67 67 66 65 65 62 62 62 62 63 63 64 65 64 63 61 57 56 56
33 32 32 32 33 34 32 32 33 32 34 34 35 36 37 37 38 39 40 40 41 42 45 57 65 65 66 67 67 66 67 67 66 65 64 63 64 63 62 62 63 63 65 64 63 61 57 56 56
34 31 32 32 32 31 34 32 32 33 34 33 36 37 38 39 39 39 41 41 41 41 42 46 60 65 66 66 67 66 67 67 66 66 65 64 63 62 62 61 62 63 65 62 62 57 56 56 56
30 30 28 27 33 32 29 26 31 33 33 33 32 35 38 39 39 44 46 47 48 47 47 47 49 58 64 64 65 65 65 65 66 66 65 64 63 63 61 61 62 64 63 62 60 57 56 56 55
30 18 27 28 31 33 30 28 30 31 31 30 30 30 35 42 48 50 51 53 54 54 54 53 52 50 60 63 65 64 64 64 65 65 65 63 62 61 60 60 62 62 62 61 61 58 56 55 55
22 27 26 26 27 31 29 29 30 30 30 30 30 31 36 43 48 51 52 53 54 55 55 56 55 51 50 54 61 62 63 63 63 64 63 63 62 61 61 60 63 61 61 61 60 58 58 55 55
28 27 27 28 29 28 27 28 29 30 29 28 28 32 37 44 50 51 52 53 54 55 55 56 55 50 52 53 56 58 59 61 61 62 63 62 61 61 60 60 62 61 60 60 59 58 57 57 55
31 30 29 30 30 27 25 25 26 27 27 27 27 29 41 47 49 50 52 52 54 54 56 57 57 50 51 53 56 58 59 59 60 63 63 63 62 61 61 61 62 61 60 60 58 57 56 56 54
31 30 29 28 28 26 22 22 23 24 25 33 31 30 44 48 48 49 52 51 53 53 55 57 57 54 51 53 57 58 58 58 59 61 62 62 62 61 60 61 62 61 60 59 59 57 56 53 52
30 33 32 31 26 22 22 20 21 21 26 38 40 43 46 48 48 50 51 51 52 54 56 57 57 57 55 53 56 56 55 55 58 57 61 61 62 61 61 61 62 61 60 59 59 59 56 54 51
31 33 32 30 24 25 23 20 21 26 24 34 42 45 46 47 49 50 51 53 55 56 56 57 57 57 56 55 56 56 55 55 56 59 59 60 59 62 62 62 61 61 59 59 59 59 55 54 51
33 27 29 30 25 22 23 22 21 19 26 36 42 45 47 47 49 51 53 54 54 55 56 58 56 57 57 57 56 55 55 55 56 57 58 58 58 59 61 63 62 62 59 58 59 59 57 53 54
29 26 24 21 22 22 24 22 23 24 26 37 42 45 47 47 49 51 52 52 53 54 56 57 57 57 57 56 56 55 56 56 54 55 57 57 57 57 58 61 62 61 59 57 59 59 57 53 48
27 26 25 19 20 22 28 25 28 32 38 37 41 46 48 47 49 51 51 52 53 54 56 56 57 57 58 56 55 55 55 55 55 53 54 57 57 55 56 59 60 60 58 56 57 57 57 51 48
26 25 27 23 25 22 25 24 23 40 42 43 46 47 47 47 50 51 51 52 52 53 55 56 56 56 56 57 56 56 56 55 55 56 56 57 55 55 57 58 59 58 59 56 55 56 54 53 53
26 28 25 26 20 19 20 20 20 27 39 44 45 46 47 48 50 51 51 51 53 54 55 55 56 55 56 56 56 54 55 55 54 54 54 55 55 54 55 56 59 58 58 58 57 56 55 53 52
26 25 25 26 24 19 17 20 25 24 37 43 45 46 47 48 49 50 50 51 54 54 54 55 55 54 54 54 54 54 54 54 54 53 54 54 54 54 54 55 56 57 56 56 55 53 52 50 49
26 24 24 23 21 25 22 21 24 27 34 43 46 47 47 48 49 49 50 53 53 53 54 54 53 53 53 53 53 52 53 53 52 52 53 53 53 53 53 53 53 53 54 54 53 51 51 49 48

GFSSGP_sfc_dewp_156.txt.gz
Dewpoint
57 50 56 52 38 35 29 35 40 37 36 38 44 54 55 59 55 48 63 69 71 71 73 73 75 74 73 72 73 72 71 70 71 71 71 72 73 73 73 73 72 72 72 72 73 73 72 72 71
55 52 54 46 33 25 23 36 35 37 37 57 52 56 56 57 62 63 65 69 71 72 72 73 75 75 74 73 73 72 71 69 72 71 71 72 72 73 73 73 72 72 72 72 72 72 72 71 70
49 52 49 41 33 29 32 36 34 35 36 39 55 57 58 59 62 62 64 69 71 72 72 73 75 75 74 74 73 73 72 70 72 71 71 72 72 72 72 72 71 72 72 72 72 72 71 71 70
48 48 44 42 33 34 33 34 35 31 33 42 53 56 59 62 62 64 69 71 71 71 72 73 75 75 75 74 74 73 72 70 71 71 72 72 72 72 71 71 72 72 71 71 72 72 71 71 70
51 46 38 36 35 37 36 36 33 28 29 30 48 54 58 62 65 65 70 71 71 71 71 73 75 74 74 74 73 73 71 70 70 71 72 72 72 72 71 72 72 72 71 71 71 71 70 70 69
45 42 37 31 32 36 29 33 29 28 27 33 53 56 58 60 64 66 71 70 71 71 71 73 74 75 74 74 73 72 71 70 70 70 71 72 72 71 71 72 72 71 71 71 71 70 70 69 68
42 34 33 33 30 28 27 27 24 25 29 30 54 53 56 57 63 67 69 70 71 71 71 73 72 72 74 74 73 72 72 71 71 71 71 72 72 72 72 72 71 71 71 71 70 70 70 68 68
43 37 32 33 28 25 29 30 28 28 30 33 50 49 53 56 64 65 67 69 70 71 72 71 71 71 71 72 73 74 73 72 71 72 72 72 72 72 71 71 71 71 70 70 70 69 68 67 67
41 35 30 26 27 28 31 28 30 32 29 30 32 48 47 59 64 62 63 65 67 69 70 70 71 71 70 70 71 73 72 72 72 71 72 71 69 70 70 71 71 70 70 70 70 69 68 67 66
37 33 31 31 30 27 32 28 29 29 31 30 31 37 49 58 61 61 60 61 62 65 68 69 69 69 69 71 70 69 70 69 69 69 68 67 67 68 69 70 71 70 70 69 69 68 67 64 61
36 30 31 35 35 33 31 30 29 28 28 29 29 34 48 50 55 56 58 59 60 63 65 68 68 69 69 69 68 68 67 67 67 66 66 66 66 67 66 67 67 67 69 68 68 65 61 59 58
37 36 35 36 37 34 31 32 30 28 28 29 31 35 42 44 46 49 52 56 60 62 64 66 67 68 68 67 68 67 65 67 65 65 65 64 63 64 64 64 65 65 66 65 63 60 59 57 56
34 34 35 36 37 35 34 32 31 32 33 32 36 37 39 40 40 41 42 47 60 60 62 64 66 66 67 66 67 67 67 67 66 64 64 63 62 62 63 64 64 64 64 65 63 59 57 56 56
33 32 32 33 33 33 33 32 32 32 34 34 36 36 37 38 38 38 39 44 51 55 59 62 64 65 66 66 66 66 66 67 66 65 64 62 62 62 62 63 63 64 65 64 64 60 56 56 56
33 30 31 31 32 32 34 31 32 33 33 33 33 35 36 37 38 38 39 39 41 42 44 46 60 64 65 66 66 66 65 66 66 66 64 62 62 62 61 62 62 63 64 64 63 59 56 56 55
28 28 26 26 32 32 29 26 28 32 33 32 33 34 37 37 38 39 41 44 44 44 43 45 49 64 64 65 65 65 66 66 66 66 65 64 63 61 60 61 61 63 63 62 61 60 56 56 55
27 15 24 26 31 32 30 26 29 30 33 32 33 33 33 38 42 45 48 50 51 51 52 51 51 50 62 63 65 64 64 65 65 65 65 64 63 62 61 61 61 64 62 61 60 60 60 57 55
17 25 26 25 26 29 28 29 31 31 30 30 30 30 31 35 41 49 52 53 54 54 54 55 55 53 50 58 64 63 63 63 63 64 65 64 63 62 61 61 62 62 61 60 60 59 59 59 57
25 26 26 28 29 29 29 29 29 29 30 29 29 30 32 37 46 51 52 53 53 54 54 55 55 53 51 52 55 59 59 61 61 62 63 63 62 61 61 61 62 61 61 60 59 59 58 58 57
29 28 28 30 31 29 28 27 27 27 27 28 29 29 30 41 48 50 51 52 53 53 55 56 56 55 50 52 55 57 57 58 59 61 61 62 61 61 61 61 62 61 60 59 58 58 58 58 57
31 29 29 28 30 29 23 23 22 23 26 25 28 27 31 40 47 49 51 51 52 53 54 56 56 56 51 52 54 56 57 57 57 59 61 60 60 61 61 61 61 61 60 59 58 58 57 56 57
29 32 32 31 30 26 23 21 22 22 23 29 37 37 38 46 48 49 50 51 51 53 56 56 56 56 56 53 54 54 53 53 55 57 60 61 61 60 61 61 61 61 60 60 58 58 58 57 55
31 34 33 33 29 25 23 21 22 23 23 23 35 40 43 45 48 49 50 52 54 55 55 55 56 56 54 53 54 54 53 55 58 59 59 60 61 61 61 60 61 61 60 60 59 58 57 57 56
33 29 29 29 25 21 23 23 23 21 21 30 40 42 45 46 48 50 52 53 53 54 55 55 57 57 56 55 55 54 54 55 56 56 57 58 59 60 61 61 60 62 60 60 60 59 58 57 57
31 26 27 22 23 22 24 22 24 24 25 31 36 43 45 47 48 51 51 51 52 52 54 56 56 57 56 55 55 55 55 54 54 55 55 57 57 57 58 61 61 61 61 60 60 59 57 57 56
29 28 28 21 20 23 27 23 26 31 36 38 38 45 46 47 49 50 50 51 52 53 54 54 56 57 58 57 55 55 55 55 54 53 54 56 57 57 57 58 61 62 61 60 60 59 58 57 56
27 26 28 24 25 22 25 25 24 37 40 42 43 46 46 46 49 50 50 51 51 52 53 54 56 56 57 57 57 55 54 53 54 54 55 55 55 54 57 57 59 60 59 58 60 59 57 56 54
27 28 25 26 21 20 21 20 21 22 27 42 44 44 46 47 49 49 49 50 51 52 53 56 56 55 56 56 56 55 56 55 53 52 53 55 55 55 56 56 58 58 57 57 58 57 57 55 54
26 26 26 26 25 19 16 19 24 23 24 34 43 45 46 47 49 49 49 50 51 52 53 55 54 54 54 54 54 54 54 54 53 53 54 54 54 54 55 56 58 57 57 56 56 56 55 53 52
26 26 25 24 22 23 21 20 24 32 32 38 44 46 47 48 48 49 49 51 51 53 53 53 53 53 53 53 53 53 53 53 52 53 53 54 53 53 53 55 56 57 56 56 54 54 53 52 51

GFSSGP_sfc_dewp_159.txt.gz
Dewpoint
57 52 59 54 39 38 29 37 41 38 36 38 43 53 52 58 52 51 65 69 70 70 71 71 75 74 73 73 73 72 71 70 70 71 72 72 73 73 73 72 72 72 73 73 73 72 72 71 71
56 51 57 49 35 25 21 36 37 40 44 57 55 56 55 57 62 63 65 69 70 70 71 69 75 75 74 73 73 72 71 70 71 71 71 72 72 73 73 72 72 72 73 73 73 72 71 71 71
47 52 52 44 35 27 28 37 38 36 54 44 56 58 58 59 62 63 65 69 70 70 70 70 76 75 75 74 73 72 71 69 72 70 71 71 72 73 72 72 72 72 73 73 72 72 71 71 70
51 51 47 44 35 35 35 36 35 33 33 43 55 56 60 62 63 64 67 69 70 71 71 72 76 76 75 74 74 73 72 70 72 71 71 72 72 72 72 71 72 72 72 72 72 72 71 70 70
51 47 41 39 37 39 37 38 35 30 30 40 51 55 59 62 65 65 69 70 70 71 71 70 75 75 75 75 74 73 72 71 71 71 72 72 72 72 71 72 72 72 72 72 72 71 70 69 69
47 45 35 30 32 36 36 33 32 27 26 46 52 57 59 60 64 65 70 70 70 71 71 70 74 75 74 74 74 73 71 70 70 71 72 72 72 72 71 72 72 72 72 72 71 70 70 69 68
45 40 34 33 33 31 29 30 26 27 29 28 54 55 57 58 65 68 70 70 71 72 72 72 73 72 74 74 74 73 71 71 70 71 72 72 72 71 72 72 72 71 72 71 71 70 70 68 68
46 41 33 34 31 31 28 28 27 28 29 46 53 48 53 59 65 68 70 70 71 72 72 72 73 72 72 73 74 73 73 73 72 72 72 73 73 72 72 72 71 71 71 71 70 70 69 68 67
43 39 34 31 30 30 30 27 29 30 30 29 36 45 49 60 65 66 67 69 70 71 72 72 72 72 72 72 73 74 73 72 72 72 72 71 71 71 70 71 72 71 71 70 70 69 68 67 66
41 38 36 32 31 28 29 28 27 29 29 29 29 41 49 63 62 62 64 66 68 70 71 72 71 72 72 71 72 72 71 71 70 71 70 70 70 70 70 70 72 71 71 70 69 69 67 65 61
37 37 34 31 36 33 31 30 29 30 31 31 31 32 53 62 62 60 60 63 65 68 70 71 71 71 71 71 72 72 72 72 71 70 71 71 71 71 70 70 70 70 70 70 69 66 63 61 59
36 37 34 36 37 35 32 32 30 31 34 32 35 33 51 58 60 60 58 58 60 63 67 70 70 70 71 71 71 71 70 70 70 70 70 70 69 70 70 70 70 70 70 69 67 64 62 59 57
37 36 36 37 38 37 36 35 33 33 34 33 32 35 45 51 55 55 53 53 59 60 65 67 69 69 70 70 69 69 68 69 69 69 69 69 68 68 68 68 68 69 69 68 67 64 60 57 57
34 34 33 34 34 34 34 34 35 34 35 34 35 37 37 44 45 44 42 44 49 60 62 65 66 68 69 69 67 67 68 68 68 68 68 67 68 67 67 66 67 67 68 67 64 63 60 57 56
32 30 31 31 32 32 34 32 33 33 34 33 34 35 37 39 40 39 39 40 46 54 58 61 64 67 68 68 67 67 67 68 67 67 66 65 66 66 66 66 66 67 67 66 64 61 59 57 56
29 27 26 26 32 33 32 28 31 31 33 33 33 33 36 37 37 38 40 40 42 45 45 46 48 62 66 67 66 66 66 67 66 67 66 65 64 64 64 64 64 65 65 65 64 61 59 59 56
26 20 22 24 30 32 30 30 31 31 33 33 33 33 34 36 38 39 42 44 46 45 47 48 50 50 63 66 66 65 65 65 66 66 66 65 65 63 62 63 64 64 64 64 63 61 60 58 57
24 24 25 23 25 29 29 30 32 32 32 32 31 32 33 33 35 40 47 51 53 54 54 54 55 54 52 62 65 64 64 64 65 65 65 65 65 64 62 63 63 63 63 62 62 60 60 58 58
21 24 25 28 29 28 27 29 31 32 32 32 32 30 30 30 34 44 50 53 54 54 55 55 55 55 53 55 61 62 61 62 62 64 65 65 64 64 63 62 63 63 61 62 61 60 58 58 57
29 27 27 29 31 30 30 30 31 31 32 31 30 30 30 32 42 49 52 53 53 54 56 57 57 57 53 55 58 61 62 62 63 62 63 64 63 63 62 62 62 62 62 60 60 59 59 58 58
30 28 28 26 30 31 27 26 25 25 28 28 28 30 30 32 41 49 51 52 54 55 57 58 58 58 54 54 57 60 61 61 61 60 61 62 63 62 62 62 62 61 62 60 60 59 59 56 58
30 32 31 30 30 26 24 24 26 26 25 26 26 34 33 37 44 50 51 53 54 56 58 58 58 58 57 54 56 56 55 57 60 60 62 61 61 61 62 60 59 60 61 61 60 60 59 58 56
32 34 33 33 31 27 25 23 23 25 25 24 33 37 42 45 47 50 51 53 55 57 58 58 58 58 56 57 56 57 57 58 60 59 60 60 61 61 62 61 61 61 61 60 60 59 59 58 57
34 30 29 29 27 22 24 24 24 25 21 25 33 42 45 47 49 51 53 55 56 57 58 57 57 58 57 57 58 58 58 57 58 58 58 59 60 61 60 61 61 61 61 60 60 59 59 58 58
33 29 29 25 25 22 24 23 25 27 28 27 29 40 46 48 50 51 52 54 54 55 57 56 57 57 58 58 58 57 58 57 58 59 58 58 58 59 60 61 61 62 62 61 61 60 59 59 58
32 30 30 25 23 27 26 25 26 30 34 38 39 41 47 49 50 50 53 53 54 55 57 55 56 57 57 57 57 56 57 57 57 57 57 58 59 59 59 59 61 61 61 61 61 59 59 58 58
30 30 31 26 25 24 28 26 28 33 32 41 41 45 47 49 49 52 52 53 53 54 55 56 56 57 58 57 57 56 55 55 55 56 56 56 56 57 58 59 59 60 62 61 60 59 58 58 58
29 29 28 28 26 22 22 21 23 25 27 32 43 45 47 49 51 51 52 52 53 54 56 56 56 55 57 56 56 56 56 55 55 55 54 55 56 57 57 58 58 59 60 60 60 59 58 56 55
28 28 29 28 27 21 18 20 24 25 27 30 37 45 47 49 49 51 51 52 53 54 55 55 55 55 55 55 55 55 55 54 54 54 54 54 55 55 56 56 57 59 58 59 59 58 57 55 53
31 29 29 30 26 23 21 21 26 32 38 41 43 45 47 49 49 51 51 52 53 53 54 54 54 54 54 54 54 54 53 53 53 53 53 54 53 54 54 55 57 58 57 57 57 56 55 53 53

GFSSGP_sfc_dewp_165.txt.gz
Dewpoint
57 44 50 51 40 32 27 23 28 35 34 37 42 41 42 49 50 53 66 61 61 63 65 68 75 74 73 73 71 71 72 72 72 71 72 72 72 72 72 72 72 71 72 73 72 72 70 70 70
46 41 51 45 33 24 21 21 31 33 36 39 45 46 43 49 56 60 61 64 61 62 64 63 75 75 74 74 72 71 70 71 71 71 71 72 72 72 72 72 72 72 73 72 71 71 70 70 70
44 44 42 38 28 22 21 30 28 37 42 46 45 48 45 52 55 58 63 65 61 61 63 64 75 76 75 74 73 72 70 70 71 71 70 71 72 72 72 72 72 72 72 72 71 71 70 70 70
44 44 37 26 24 25 25 23 36 37 45 44 46 42 51 60 58 60 64 64 63 61 62 71 75 75 75 74 73 72 71 70 72 70 71 71 72 72 72 72 72 72 72 72 71 71 70 69 69
46 41 30 29 24 22 27 29 37 36 42 43 42 45 50 60 62 62 63 63 63 63 63 68 76 75 75 75 74 73 71 70 73 70 71 71 72 72 72 72 72 72 72 72 71 70 70 69 69
39 36 23 21 21 19 21 24 34 37 37 37 44 43 50 62 62 62 63 63 63 63 64 67 75 75 75 74 74 73 72 70 72 71 71 72 72 72 72 72 72 72 72 72 71 70 69 69 68
41 33 25 23 23 22 19 25 29 34 35 34 42 40 49 56 62 61 62 62 63 64 65 66 69 72 75 75 74 73 73 71 70 71 72 71 72 72 72 71 72 72 72 71 71 70 69 68 67
42 36 27 27 22 22 23 25 29 32 33 36 40 37 40 51 62 61 61 62 63 65 65 66 67 69 69 69 74 73 73 72 71 71 72 73 72 72 72 72 71 72 72 71 71 70 69 68 67
41 31 25 24 25 25 25 25 29 31 32 34 40 37 44 54 62 62 62 62 65 65 66 67 69 70 70 70 71 72 73 73 73 72 72 71 67 69 70 70 72 71 71 71 71 69 68 67 66
36 32 27 27 26 26 25 26 25 29 30 31 33 34 41 54 56 55 59 59 63 65 65 64 65 68 69 68 71 70 70 68 69 68 66 64 64 67 66 69 71 71 71 71 70 70 68 67 61
35 31 29 30 27 28 30 27 28 28 30 30 31 31 36 48 50 50 51 54 59 62 65 64 66 68 69 70 72 72 74 73 70 68 69 68 65 67 64 67 67 68 70 70 69 68 64 62 60
33 31 29 30 27 30 30 29 27 29 30 30 32 31 30 38 42 47 46 48 50 53 63 64 66 67 67 69 67 68 70 71 71 71 70 69 67 66 65 67 68 71 67 67 68 67 66 62 58
32 31 27 30 31 31 31 29 29 29 29 30 31 32 32 30 37 41 44 43 45 47 57 62 65 65 64 65 63 63 63 64 64 67 68 70 71 69 68 68 66 68 68 69 69 67 67 61 56
26 30 30 29 30 30 29 28 29 27 27 27 30 31 31 31 32 35 42 42 43 43 51 57 61 64 62 61 62 62 62 61 62 62 64 66 67 66 65 67 67 68 70 70 69 69 66 58 55
29 28 26 26 26 27 27 28 27 27 26 27 26 26 29 31 31 31 39 43 43 41 44 53 58 61 64 62 62 66 66 66 63 63 63 62 62 64 64 63 64 65 68 68 68 66 65 57 56
26 25 24 24 26 25 29 23 21 25 24 26 25 25 27 28 29 31 36 43 42 38 42 53 56 59 63 61 63 64 64 66 66 65 67 67 65 66 63 62 63 66 67 67 67 65 64 60 58
25 22 22 22 24 23 28 25 24 28 27 28 28 27 27 27 29 32 34 40 40 38 41 52 56 58 59 60 65 66 64 64 63 61 64 65 65 64 64 64 65 65 66 67 66 65 62 61 60
22 19 20 21 20 24 25 25 27 27 28 28 26 26 27 26 27 31 34 37 40 41 43 50 54 54 57 60 63 65 64 64 63 63 64 64 62 62 62 63 63 64 65 64 64 63 62 61 61
24 22 21 21 19 21 24 25 25 25 24 24 24 22 23 26 27 30 33 36 40 43 45 49 51 51 51 53 56 62 61 61 62 63 63 63 62 62 62 62 62 63 64 63 63 62 60 60 60
25 24 23 23 24 23 24 24 25 25 26 26 24 24 25 23 26 27 32 37 41 44 48 50 51 52 53 53 52 54 57 59 60 61 63 62 62 64 62 62 61 63 63 62 62 60 59 58 60
28 25 24 23 25 25 24 25 25 24 25 26 26 28 27 27 25 27 32 40 45 45 49 50 52 53 54 55 55 57 57 59 59 59 61 61 60 63 62 61 61 62 63 62 61 60 58 56 58
26 26 26 26 27 23 24 21 23 22 22 24 25 27 27 29 29 29 35 42 46 47 51 52 53 54 55 56 54 55 55 55 56 58 60 60 59 59 62 61 61 62 62 62 60 60 60 58 57
27 28 28 30 28 26 25 24 23 22 20 22 24 33 34 32 31 31 38 45 48 51 54 54 56 56 56 56 55 55 55 54 55 57 59 60 60 60 61 60 60 60 62 61 61 61 60 59 58
28 29 30 31 29 25 22 22 22 21 21 21 27 32 37 39 36 34 44 48 50 55 55 57 56 57 58 58 57 57 56 55 55 56 57 60 61 61 60 61 61 59 60 60 60 61 60 59 59
29 28 28 26 28 24 22 24 24 23 26 27 26 30 39 41 39 43 47 50 53 55 57 57 57 57 57 56 56 56 57 57 57 56 58 58 60 60 61 60 60 59 58 58 60 60 60 59 59
27 29 29 28 22 26 27 27 27 27 29 31 32 35 40 43 43 48 50 52 53 55 56 56 56 57 57 58 58 58 59 59 58 59 58 58 59 59 61 62 61 60 58 60 61 61 61 60 59
28 28 30 27 25 26 27 26 27 28 27 32 33 39 41 45 48 49 50 52 53 55 55 55 56 57 57 58 58 57 57 57 57 58 58 58 58 58 58 60 60 61 61 60 61 61 60 60 60
26 29 29 33 31 25 21 19 20 26 27 35 35 40 44 48 49 50 51 52 52 54 54 55 56 56 57 58 57 57 56 56 56 56 57 57 57 57 57 59 60 60 60 60 61 61 60 59 59
18 25 27 34 32 21 17 15 22 26 32 38 40 43 46 48 50 49 50 51 52 55 55 55 55 55 56 57 57 56 55 55 55 55 55 55 56 55 55 57 57 59 60 61 61 61 60 59 59
23 32 35 32 30 29 24 17 26 31 39 41 42 44 46 49 49 49 50 50 51 53 54 54 55 54 55 56 55 54 54 55 55 54 54 54 54 55 55 55 57 57 57 59 60 59 58 57 56

GFSSGP_sfc_dewp_168.txt.gz
Dewpoint
61 51 50 57 49 43 35 35 32 37 36 38 41 41 47 53 55 56 66 63 65 66 68 73 75 74 72 71 72 72 73 72 72 72 73 73 73 73 73 72 72 72 73 72 72 71 70 70 70
56 41 57 54 40 36 32 30 32 36 41 39 42 46 44 54 58 62 62 61 63 65 66 70 76 75 73 73 71 71 72 72 72 71 71 72 73 73 72 72 72 73 73 72 71 71 71 70 68
49 42 51 44 38 31 32 34 33 40 41 45 46 47 49 52 57 60 63 61 61 63 63 70 76 75 75 74 72 71 70 71 71 70 71 72 72 72 72 72 72 73 72 72 71 71 70 69 69
46 51 47 37 32 31 32 27 37 38 40 45 45 46 56 58 58 62 64 60 59 61 61 74 75 76 75 74 73 72 70 70 71 71 70 71 72 72 72 72 72 73 72 72 71 71 70 69 70
47 51 42 36 33 29 26 30 38 36 37 43 42 46 55 61 62 62 63 62 60 60 69 72 75 75 75 75 74 72 71 70 72 70 71 71 72 72 72 72 72 72 72 72 71 70 70 70 69
48 43 36 29 29 27 24 31 34 37 36 40 43 43 54 61 61 62 62 62 62 63 67 69 75 76 75 75 74 73 72 70 72 70 70 72 72 72 72 72 72 72 72 72 71 70 69 69 68
47 44 35 31 28 28 27 27 28 35 35 36 42 42 57 60 62 62 62 62 62 64 68 70 72 74 75 75 74 73 73 71 72 71 72 72 73 73 72 72 72 72 72 72 71 70 69 68 67
49 44 35 33 30 30 29 30 28 31 34 40 42 40 47 57 61 61 61 62 62 65 67 69 70 71 71 72 74 73 73 73 72 72 73 73 73 73 73 72 72 72 72 71 71 70 68 68 66
50 41 33 31 31 35 29 33 27 33 31 39 39 41 49 60 61 61 61 61 65 65 65 68 67 69 70 70 72 73 73 73 73 72 73 73 70 71 71 71 72 71 71 71 71 69 69 68 66
43 39 34 34 33 30 29 32 28 32 30 31 35 40 46 56 58 59 61 61 64 65 66 67 68 68 69 69 71 70 71 71 71 69 69 70 67 69 69 70 71 71 71 71 70 70 68 67 63
41 37 34 33 32 32 30 30 29 28 32 31 33 34 41 52 53 53 56 58 62 64 65 65 68 69 69 69 70 70 71 70 70 69 69 68 67 66 66 69 69 69 71 70 69 69 66 64 61
35 34 34 34 32 31 30 30 29 30 33 32 32 34 37 43 46 47 48 52 56 62 65 65 67 68 68 69 69 70 69 70 69 69 68 68 68 67 67 69 67 68 69 68 68 68 66 62 60
30 31 32 32 31 32 32 31 30 29 30 30 30 34 33 33 40 42 46 46 52 58 63 65 65 66 67 67 67 68 69 68 68 68 69 69 67 66 67 66 67 67 67 67 68 67 66 65 59
30 29 28 30 30 30 30 31 31 29 30 27 28 31 32 32 32 33 40 44 42 48 61 64 65 65 65 65 64 63 62 65 65 68 68 67 67 67 66 66 66 66 67 67 67 66 65 64 57
30 28 29 28 26 27 29 28 28 27 28 27 26 26 29 33 33 31 33 41 41 43 54 58 63 64 63 62 64 65 66 66 65 66 65 65 65 65 64 64 64 66 66 65 68 66 64 63 59
28 28 26 26 28 30 29 27 29 27 27 27 25 25 27 28 30 30 31 37 41 43 48 54 58 63 63 62 65 65 65 66 66 65 67 66 66 64 64 62 62 65 65 66 65 65 62 61 60
29 23 24 26 28 30 29 29 29 29 29 28 27 27 26 26 28 29 32 34 44 43 43 54 57 60 63 61 66 65 65 65 65 64 66 65 65 65 64 63 64 65 65 65 65 64 62 60 60
27 23 22 23 26 25 26 26 27 27 27 30 29 28 27 27 27 29 34 35 43 43 47 56 57 58 60 62 65 65 64 64 63 63 63 64 64 63 63 63 62 65 64 64 64 63 62 61 59
26 24 24 25 25 24 24 23 25 27 28 26 26 24 23 22 23 28 34 38 43 44 46 53 56 55 59 60 64 63 62 62 62 63 63 64 63 62 62 62 61 64 63 63 63 62 60 60 59
27 25 25 26 27 23 24 25 26 26 26 27 26 26 25 25 24 25 34 36 41 42 46 52 54 54 54 55 56 61 61 61 61 63 63 63 63 62 61 61 60 62 63 63 62 60 59 58 59
27 24 25 26 26 26 26 26 26 25 25 26 27 26 26 26 25 25 30 34 41 42 47 50 53 54 55 54 56 57 57 59 59 60 61 61 62 63 62 61 60 61 61 60 61 59 57 57 58
24 27 27 27 26 25 27 23 25 24 24 25 26 27 29 31 30 31 33 40 42 46 51 52 54 54 55 56 55 56 56 56 58 58 59 60 61 62 61 61 59 61 62 60 60 60 58 58 56
25 30 29 30 29 28 27 25 24 25 25 25 23 35 34 37 35 33 39 44 47 51 52 53 55 56 57 56 55 56 55 56 57 59 59 59 59 61 61 60 58 61 62 61 61 60 59 57 57
30 28 28 31 30 26 27 26 24 23 24 24 27 34 38 38 38 35 43 48 53 55 56 56 56 57 57 56 55 55 55 55 55 56 57 59 59 60 60 60 60 61 61 60 61 60 59 58 58
30 28 27 27 28 26 26 25 23 26 29 29 30 33 40 40 39 43 48 51 54 55 56 57 57 57 57 57 57 56 56 56 55 56 57 57 58 58 59 60 60 60 59 59 60 60 60 59 58
20 27 29 24 24 26 28 27 28 30 30 32 34 36 42 42 41 48 51 53 54 56 56 57 56 56 57 58 57 58 58 57 58 58 57 57 57 58 60 60 60 59 58 59 60 60 60 60 59
21 21 31 30 28 27 28 26 27 32 28 32 33 39 41 44 47 50 52 53 55 55 55 55 55 56 56 57 56 56 57 58 57 59 59 59 58 58 59 60 60 60 59 59 60 59 59 59 59
19 20 24 33 29 26 26 23 21 24 27 36 35 40 44 49 49 50 51 53 54 54 55 56 57 56 56 56 57 56 56 56 56 56 56 56 56 56 56 58 59 60 60 60 59 59 60 60 59
13 20 25 34 32 28 24 25 25 31 35 38 39 42 48 49 49 50 51 53 54 55 56 56 56 56 57 57 56 55 55 55 55 55 55 55 55 55 55 56 57 59 59 60 59 60 59 59 59
8 14 33 29 27 30 32 28 37 37 40 42 43 46 48 48 50 50 51 54 54 54 55 55 55 55 56 55 55 55 55 54 54 53 53 53 54 55 54 55 56 57 58 58 60 59 59 58 57

GFSSGP_sfc_dewp_171.txt.gz
Dewpoint
62 57 52 52 40 38 32 33 28 31 34 38 43 48 55 56 56 53 65 67 70 70 72 72 74 73 73 72 73 73 73 73 73 74 73 73 73 73 73 73 73 73 73 72 71 70 70 69 69
57 52 52 48 34 34 32 29 32 36 43 41 45 47 53 56 61 63 62 68 68 69 72 72 75 74 72 72 72 73 73 72 72 72 72 73 73 73 72 72 72 73 72 72 71 71 69 68 70
55 47 44 39 36 28 28 29 35 39 42 44 45 47 53 57 61 62 62 65 66 68 70 73 75 75 74 72 71 71 71 71 71 71 72 72 72 73 72 72 72 73 72 72 71 70 69 69 71
46 47 43 33 31 31 25 25 34 35 38 44 45 53 57 60 61 63 61 62 65 66 69 75 76 75 75 73 72 71 70 71 72 70 70 72 72 72 72 72 72 72 72 72 71 70 70 70 70
43 47 40 33 29 27 28 24 34 35 36 43 43 48 57 61 63 64 61 61 63 62 70 74 76 75 75 74 73 71 70 71 71 71 71 71 72 72 73 72 72 72 72 71 71 70 70 69 69
41 41 32 31 30 29 25 26 32 34 36 38 42 51 57 61 62 62 62 60 64 67 70 72 76 75 76 75 74 72 71 71 72 70 71 71 72 72 73 72 72 72 72 71 71 70 69 68 67
41 40 36 32 30 27 27 26 32 37 35 36 42 44 59 60 62 62 62 62 66 67 68 70 73 74 76 75 75 74 72 71 73 71 72 73 72 73 73 72 71 72 72 71 70 69 68 67 66
45 41 34 31 29 27 27 29 28 30 34 37 42 44 56 60 62 62 62 62 66 68 69 72 73 73 74 74 75 74 74 72 72 72 73 73 73 73 73 73 72 72 72 71 70 70 69 67 65
43 36 33 30 30 30 29 27 28 31 31 31 37 43 56 61 62 61 61 62 66 68 70 71 71 72 72 72 73 74 73 73 73 73 73 73 71 71 72 72 73 71 71 71 70 69 68 67 65
39 34 31 33 33 31 30 30 30 27 28 29 33 49 58 59 59 59 60 62 64 65 68 68 69 70 70 71 72 71 72 71 71 71 70 71 70 70 70 71 72 72 71 71 70 69 69 67 63
39 35 35 34 35 34 31 28 31 29 28 29 30 40 56 57 58 59 60 62 64 64 66 67 68 68 70 70 70 70 70 70 70 69 68 68 67 68 70 69 69 69 71 69 70 69 67 65 62
35 37 37 37 36 33 30 32 29 30 30 32 33 31 40 53 55 55 58 59 63 64 64 66 69 68 68 69 69 69 70 69 69 69 69 68 67 67 67 68 68 68 68 68 67 66 66 64 63
32 32 33 34 35 33 31 31 31 31 31 31 31 31 38 46 49 48 50 55 62 63 64 64 68 68 68 67 68 68 68 68 67 68 68 68 67 66 66 66 67 67 67 67 67 66 66 64 63
30 30 30 30 30 30 29 31 32 31 30 30 29 29 29 33 33 34 37 46 56 63 63 64 65 67 68 67 67 68 68 68 68 68 67 67 67 66 65 65 65 66 66 66 66 65 65 63 59
31 28 29 29 29 29 31 27 27 29 29 28 28 27 26 30 33 31 32 36 43 60 63 64 64 66 66 66 65 65 66 65 65 66 67 67 66 65 64 64 64 65 66 66 66 65 64 62 59
31 29 27 28 29 28 28 25 29 30 28 27 27 26 26 27 32 32 33 32 41 58 61 64 63 64 63 62 65 65 65 65 65 66 66 66 65 64 64 62 63 65 65 64 65 63 61 60 59
31 26 24 25 28 29 27 26 28 29 27 27 26 27 26 26 28 31 32 32 39 48 57 61 63 62 62 64 65 64 65 65 65 65 65 65 65 65 63 63 64 64 64 64 64 61 60 58 59
28 27 25 24 25 25 27 26 28 27 26 26 28 28 28 28 28 28 31 33 41 45 54 58 62 62 62 65 64 64 64 64 63 64 64 64 64 65 62 62 63 63 63 62 62 62 62 59 59
29 28 27 25 27 26 25 25 25 26 26 27 27 27 27 25 24 25 31 34 44 46 54 56 58 60 64 64 63 62 61 62 62 62 63 63 63 62 62 62 61 63 62 61 63 61 60 59 59
30 28 27 27 29 26 26 25 27 27 27 27 26 26 26 26 25 25 30 36 43 49 54 56 57 58 61 64 63 62 61 61 61 62 62 63 63 62 63 61 60 61 61 61 62 60 59 59 59
29 28 27 25 28 28 26 25 26 27 28 27 26 26 27 27 26 26 27 36 42 47 53 55 55 54 56 56 58 58 59 60 59 60 61 62 62 62 61 60 60 60 60 60 61 60 58 57 58
26 28 28 29 27 24 27 23 25 26 26 26 25 26 28 32 32 30 30 36 40 43 51 53 53 53 54 55 55 55 55 56 57 58 59 59 60 62 61 61 59 60 62 60 61 60 58 58 57
28 32 30 30 28 27 27 26 26 26 26 26 26 31 37 37 35 34 41 39 44 48 51 53 54 55 55 55 55 55 55 55 57 58 58 58 59 62 61 60 59 60 62 61 60 60 58 58 57
30 29 29 29 28 25 26 27 25 26 26 24 34 37 38 38 37 42 50 53 53 53 54 55 56 56 56 55 55 55 54 54 56 57 57 58 58 60 59 60 59 59 61 61 61 60 59 58 57
21 25 28 26 26 23 27 26 26 27 28 26 33 38 39 39 41 48 52 53 54 55 56 56 57 56 55 55 55 56 55 55 55 56 57 56 56 57 58 58 58 59 61 60 59 60 60 57 57
19 21 29 26 23 26 29 28 28 30 30 31 33 40 41 40 46 50 53 54 55 56 56 56 56 56 57 57 57 56 56 57 57 56 56 56 56 56 58 59 59 60 58 58 58 59 59 59 59
16 20 19 29 33 32 32 32 31 34 33 32 36 41 42 43 49 51 53 55 55 55 55 56 57 57 56 56 56 56 56 56 56 56 57 57 58 59 60 60 60 59 59 58 58 58 58 58 57
10 11 22 30 25 22 27 26 31 34 36 38 40 40 45 48 50 51 54 54 54 54 55 55 56 56 56 56 55 55 56 57 57 57 57 57 56 56 57 58 59 60 60 60 58 58 58 57 58
10 9 11 28 30 25 21 27 36 35 36 36 37 46 48 47 49 50 54 54 54 55 56 56 57 56 57 57 56 55 56 55 55 55 55 55 55 55 55 56 57 59 59 60 59 58 59 59 59
10 11 25 23 23 26 28 27 39 37 37 37 36 38 48 48 49 52 53 53 54 55 55 55 56 57 56 56 55 55 54 54 53 52 53 53 54 55 55 55 55 57 59 59 59 57 58 58 58